Observation data for Snyder SSW on 02/13/2018      Previous  Date  Next       Current Mesonet Observations  Soil Data  Daily Summary Page  Observations in Plain Language
KWT1 130600Z 07004KT 01/M09 A3028 RMK A01 T00121085  RH  048%=      5-min Rain = 0
KWT1 130601Z 07004KT 01/M09 A3028 RMK A01 T00121085  RH  048%=      5-min Rain = 0
KWT1 130602Z 07005KT 01/M09 A3028 RMK A01 T00111086  RH  048%=      5-min Rain = 0
KWT1 130603Z 07005KT 01/M09 A3028 RMK A01 T00111086  RH  049%=      5-min Rain = 0
KWT1 130604Z 07005KT 01/M09 A3028 RMK A01 T00111085  RH  049%=      5-min Rain = 0
KWT1 130605Z 07004KT 01/M09 A3028 RMK A01 T00101086  RH  049%=      5-min Rain = 0
KWT1 130606Z 07004KT 01/M09 A3028 RMK A01 T00101086  RH  049%=      5-min Rain = 0
KWT1 130607Z 07004KT 01/M09 A3028 RMK A01 T00091086  RH  049%=      5-min Rain = 0
KWT1 130608Z 07004KT 01/M09 A3028 RMK A01 T00101085  RH  049%=      5-min Rain = 0
KWT1 130609Z 07004KT 01/M09 A3028 RMK A01 T00091085  RH  049%=      5-min Rain = 0
KWT1 130610Z 07004KT 01/M09 A3028 RMK A01 T00091085  RH  049%=      5-min Rain = 0
KWT1 130611Z 08004KT 01/M09 A3028 RMK A01 T00091085  RH  049%=      5-min Rain = 0
KWT1 130612Z 08004KT 01/M08 A3028 RMK A01 T00101084  RH  049%=      5-min Rain = 0
KWT1 130613Z 09004KT 01/M09 A3028 RMK A01 T00111085  RH  049%=      5-min Rain = 0
KWT1 130614Z 09005KT 01/M08 A3027 RMK A01 T00111084  RH  049%=      5-min Rain = 0
KWT1 130615Z 09005KT 01/M09 A3027 RMK A01 T00101086  RH  049%=      5-min Rain = 0
KWT1 130616Z 09005KT 01/M09 A3027 RMK A01 T00091085  RH  049%=      5-min Rain = 0
KWT1 130617Z 09005KT 01/M09 A3027 RMK A01 T00091085  RH  049%=      5-min Rain = 0
KWT1 130618Z 10006KT 01/M09 A3027 RMK A01 T00091086  RH  049%=      5-min Rain = 0
KWT1 130619Z 10005KT 01/M09 A3027 RMK A01 T00081086  RH  049%=      5-min Rain = 0
KWT1 130620Z 10005KT 01/M09 A3027 RMK A01 T00071087  RH  049%=      5-min Rain = 0
KWT1 130621Z 11005KT 01/M09 A3027 RMK A01 T00061087  RH  050%=      5-min Rain = 0
KWT1 130622Z 10005KT 01/M09 A3027 RMK A01 T00051087  RH  050%=      5-min Rain = 0
KWT1 130623Z 10005KT 00/M09 A3027 RMK A01 T00041087  RH  050%=      5-min Rain = 0
KWT1 130624Z 10005KT 00/M09 A3027 RMK A01 T00031088  RH  051%=      5-min Rain = 0
KWT1 130625Z 10004KT 00/M09 A3027 RMK A01 T00031087  RH  051%=      5-min Rain = 0
KWT1 130626Z 10005KT 00/M09 A3027 RMK A01 T00021087  RH  051%=      5-min Rain = 0
KWT1 130627Z 10005KT 00/M09 A3027 RMK A01 T00021087  RH  051%=      5-min Rain = 0
KWT1 130628Z 10005KT 00/M09 A3027 RMK A01 T00021087  RH  051%=      5-min Rain = 0
KWT1 130629Z 09005KT 00/M09 A3027 RMK A01 T00011087  RH  051%=      5-min Rain = 0
KWT1 130630Z 10005KT 00/M09 A3027 RMK A01 T00011087  RH  052%=      5-min Rain = 0
KWT1 130631Z 10005KT 00/09 A3027 RMK A01 T00000-88  RH  052%=      5-min Rain = 0
KWT1 130632Z 10005KT 00/09 A3027 RMK A01 T00000-88  RH  052%=      5-min Rain = 0
KWT1 130633Z 10005KT 00/09 A3027 RMK A01 T00000-87  RH  052%=      5-min Rain = 0
KWT1 130634Z 10005KT M00/M09 A3027 RMK A01 T10011088  RH  052%=      5-min Rain = 0
KWT1 130635Z 10005KT M00/M09 A3027 RMK A01 T10011087  RH  052%=      5-min Rain = 0
KWT1 130636Z 10005KT M00/M09 A3027 RMK A01 T10011087  RH  052%=      5-min Rain = 0
KWT1 130637Z 11005KT M00/M09 A3027 RMK A01 T10011087  RH  052%=      5-min Rain = 0
KWT1 130638Z 11005KT M00/M09 A3027 RMK A01 T10021087  RH  052%=      5-min Rain = 0
KWT1 130639Z 11005KT M00/M09 A3027 RMK A01 T10021087  RH  053%=      5-min Rain = 0
KWT1 130640Z 11004KT M00/M09 A3027 RMK A01 T10011087  RH  053%=      5-min Rain = 0
KWT1 130641Z 10004KT M00/M09 A3027 RMK A01 T10021087  RH  053%=      5-min Rain = 0
KWT1 130642Z 10004KT M00/M09 A3027 RMK A01 T10021087  RH  053%=      5-min Rain = 0
KWT1 130643Z 10004KT M00/M09 A3027 RMK A01 T10021087  RH  053%=      5-min Rain = 0
KWT1 130644Z 10004KT M00/M09 A3027 RMK A01 T10021086  RH  053%=      5-min Rain = 0
KWT1 130645Z 10004KT M00/M09 A3027 RMK A01 T10021086  RH  053%=      5-min Rain = 0
KWT1 130646Z 10004KT M00/M09 A3027 RMK A01 T10021086  RH  053%=      5-min Rain = 0
KWT1 130647Z 11004KT M00/M09 A3027 RMK A01 T10021086  RH  053%=      5-min Rain = 0
KWT1 130648Z 11004KT M00/M09 A3027 RMK A01 T10011086  RH  053%=      5-min Rain = 0
KWT1 130649Z 11004KT M00/M09 A3027 RMK A01 T10021086  RH  053%=      5-min Rain = 0
KWT1 130650Z 12005KT M00/M09 A3027 RMK A01 T10021086  RH  053%=      5-min Rain = 0
KWT1 130651Z 12005KT M00/M09 A3027 RMK A01 T10021086  RH  053%=      5-min Rain = 0
KWT1 130652Z 12005KT M00/M09 A3027 RMK A01 T10011086  RH  053%=      5-min Rain = 0
KWT1 130653Z 11005KT M00/M09 A3027 RMK A01 T10021086  RH  053%=      5-min Rain = 0
KWT1 130654Z 11005KT M00/M09 A3027 RMK A01 T10021086  RH  053%=      5-min Rain = 0
KWT1 130655Z 11004KT M00/M09 A3027 RMK A01 T10031086  RH  053%=      5-min Rain = 0
KWT1 130656Z 10004KT M00/M09 A3027 RMK A01 T10031086  RH  054%=      5-min Rain = 0
KWT1 130657Z 09004KT M00/M09 A3027 RMK A01 T10031086  RH  054%=      5-min Rain = 0
KWT1 130658Z 09004KT M00/M09 A3027 RMK A01 T10041087  RH  054%=      5-min Rain = 0
KWT1 130659Z 08004KT M01/M09 A3027 RMK A01 T10051088  RH  054%=      5-min Rain = 0
KWT1 130700Z 08003KT M01/M09 A3027 RMK A01 T10051087  RH  054%=      5-min Rain = 0
KWT1 130701Z 07003KT M01/M09 A3027 RMK A01 T10061087  RH  054%=      5-min Rain = 0
KWT1 130702Z 07003KT M01/M09 A3027 RMK A01 T10061087  RH  054%=      5-min Rain = 0
KWT1 130703Z 07003KT M01/M09 A3027 RMK A01 T10051086  RH  055%=      5-min Rain = 0
KWT1 130704Z 08004KT M00/M08 A3027 RMK A01 T10041084  RH  055%=      5-min Rain = 0
KWT1 130705Z 08004KT M00/M08 A3027 RMK A01 T10031084  RH  054%=      5-min Rain = 0
KWT1 130706Z 09005KT M00/M08 A3027 RMK A01 T10011084  RH  054%=      5-min Rain = 0
KWT1 130707Z 09004KT 00/08 A3027 RMK A01 T00-00-84  RH  053%=      5-min Rain = 0
KWT1 130708Z 09004KT 00/08 A3027 RMK A01 T00000-84  RH  053%=      5-min Rain = 0
KWT1 130709Z 10005KT 00/M09 A3027 RMK A01 T00011085  RH  053%=      5-min Rain = 0
KWT1 130710Z 10005KT 00/09 A3027 RMK A01 T00000-85  RH  053%=      5-min Rain = 0
KWT1 130711Z 10005KT 00/M08 A3027 RMK A01 T00011084  RH  053%=      5-min Rain = 0
KWT1 130712Z 10005KT 00/08 A3027 RMK A01 T00000-84  RH  053%=      5-min Rain = 0
KWT1 130713Z 10005KT 00/08 A3027 RMK A01 T00-00-84  RH  053%=      5-min Rain = 0
KWT1 130714Z 11005KT 00/08 A3027 RMK A01 T00-00-83  RH  054%=      5-min Rain = 0
KWT1 130715Z 11005KT M00/M08 A3027 RMK A01 T10011083  RH  054%=      5-min Rain = 0
KWT1 130716Z 11005KT M00/M08 A3027 RMK A01 T10011083  RH  054%=      5-min Rain = 0
KWT1 130717Z 11005KT 00/08 A3027 RMK A01 T00-00-81  RH  055%=      5-min Rain = 0
KWT1 130718Z 11005KT 00/M08 A3027 RMK A01 T00011079  RH  055%=      5-min Rain = 0
KWT1 130719Z 11004KT 00/M08 A3027 RMK A01 T00021080  RH  054%=      5-min Rain = 0
KWT1 130720Z 11005KT 00/M08 A3027 RMK A01 T00011081  RH  054%=      5-min Rain = 0
KWT1 130721Z 11005KT 00/M08 A3027 RMK A01 T00011080  RH  054%=      5-min Rain = 0
KWT1 130722Z 12005KT 00/M08 A3027 RMK A01 T00011080  RH  054%=      5-min Rain = 0
KWT1 130723Z 12005KT 00/M08 A3027 RMK A01 T00011080  RH  054%=      5-min Rain = 0
KWT1 130724Z 11005KT 00/08 A3027 RMK A01 T00000-80  RH  055%=      5-min Rain = 0
KWT1 130725Z 11005KT 00/08 A3027 RMK A01 T00-00-80  RH  055%=      5-min Rain = 0
KWT1 130726Z 11006KT 00/08 A3027 RMK A01 T00-00-79  RH  055%=      5-min Rain = 0
KWT1 130727Z 11005KT M00/M08 A3027 RMK A01 T10011078  RH  056%=      5-min Rain = 0
KWT1 130728Z 11005KT 00/08 A3027 RMK A01 T00-00-76  RH  057%=      5-min Rain = 0
KWT1 130729Z 11005KT 00/08 A3027 RMK A01 T00000-75  RH  057%=      5-min Rain = 0
KWT1 130730Z 10004KT 00/08 A3027 RMK A01 T00000-75  RH  057%=      5-min Rain = 0
KWT1 130731Z 10004KT 00/08 A3027 RMK A01 T00000-75  RH  057%=      5-min Rain = 0
KWT1 130732Z 10004KT 00/08 A3027 RMK A01 T00-00-76  RH  057%=      5-min Rain = 0
KWT1 130733Z 10005KT 00/08 A3027 RMK A01 T00-00-75  RH  057%=      5-min Rain = 0
KWT1 130734Z 11005KT 00/08 A3027 RMK A01 T00000-75  RH  057%=      5-min Rain = 0
KWT1 130735Z 10005KT 00/M07 A3027 RMK A01 T00011074  RH  057%=      5-min Rain = 0
KWT1 130736Z 11005KT 00/M07 A3027 RMK A01 T00011074  RH  057%=      5-min Rain = 0
KWT1 130737Z 11006KT 00/M07 A3027 RMK A01 T00021072  RH  057%=      5-min Rain = 0
KWT1 130738Z 11007KT 00/M07 A3027 RMK A01 T00031072  RH  057%=      5-min Rain = 0
KWT1 130739Z 11007KT 00/M07 A3027 RMK A01 T00041071  RH  057%=      5-min Rain = 0
KWT1 130740Z 12006KT 00/M07 A3027 RMK A01 T00041070  RH  057%=      5-min Rain = 0
KWT1 130741Z 12006KT 00/M07 A3027 RMK A01 T00041071  RH  057%=      5-min Rain = 0
KWT1 130742Z 12006KT 00/M07 A3027 RMK A01 T00041071  RH  057%=      5-min Rain = 0
KWT1 130743Z 12006KT 00/M07 A3027 RMK A01 T00031072  RH  057%=      5-min Rain = 0
KWT1 130744Z 12006KT 00/M07 A3027 RMK A01 T00021073  RH  057%=      5-min Rain = 0
KWT1 130745Z 12006KT 00/M07 A3027 RMK A01 T00011074  RH  057%=      5-min Rain = 0
KWT1 130746Z 12006KT 00/07 A3027 RMK A01 T00000-74  RH  058%=      5-min Rain = 0
KWT1 130747Z 12006KT 00/07 A3027 RMK A01 T00-00-73  RH  058%=      5-min Rain = 0
KWT1 130748Z 12005KT M00/M07 A3026 RMK A01 T10011074  RH  058%=      5-min Rain = 0
KWT1 130749Z 12005KT M00/M07 A3026 RMK A01 T10021074  RH  058%=      5-min Rain = 0
KWT1 130750Z 12005KT M00/M07 A3027 RMK A01 T10021073  RH  059%=      5-min Rain = 0
KWT1 130751Z 12005KT M00/M07 A3027 RMK A01 T10031073  RH  059%=      5-min Rain = 0
KWT1 130752Z 12005KT M00/M07 A3027 RMK A01 T10031072  RH  059%=      5-min Rain = 0
KWT1 130753Z 12004KT M00/M07 A3027 RMK A01 T10031072  RH  060%=      5-min Rain = 0
KWT1 130754Z 12005KT M00/M07 A3027 RMK A01 T10031072  RH  060%=      5-min Rain = 0
KWT1 130755Z 12005KT M00/M07 A3026 RMK A01 T10041072  RH  060%=      5-min Rain = 0
KWT1 130756Z 12005KT M00/M07 A3026 RMK A01 T10041072  RH  060%=      5-min Rain = 0
KWT1 130757Z 12005KT M00/M07 A3026 RMK A01 T10041073  RH  060%=      5-min Rain = 0
KWT1 130758Z 12005KT M01/M07 A3026 RMK A01 T10051073  RH  060%=      5-min Rain = 0
KWT1 130759Z 12005KT M01/M07 A3026 RMK A01 T10051073  RH  060%=      5-min Rain = 0
KWT1 130800Z 11005KT M01/M07 A3026 RMK A01 T10061074  RH  060%=      5-min Rain = 0
KWT1 130801Z 11005KT M01/M07 A3026 RMK A01 T10061074  RH  060%=      5-min Rain = 0
KWT1 130802Z 11005KT M01/M08 A3026 RMK A01 T10071075  RH  060%=      5-min Rain = 0
KWT1 130803Z 11004KT M01/M08 A3026 RMK A01 T10071075  RH  060%=      5-min Rain = 0
KWT1 130804Z 11004KT M01/M08 A3026 RMK A01 T10071076  RH  060%=      5-min Rain = 0
KWT1 130805Z 11004KT M01/M08 A3026 RMK A01 T10061076  RH  059%=      5-min Rain = 0
KWT1 130806Z 11004KT M01/M08 A3026 RMK A01 T10071078  RH  059%=      5-min Rain = 0
KWT1 130807Z 10004KT M01/M08 A3026 RMK A01 T10071077  RH  059%=      5-min Rain = 0
KWT1 130808Z 10003KT M01/M08 A3026 RMK A01 T10081077  RH  059%=      5-min Rain = 0
KWT1 130809Z 09003KT M01/M08 A3026 RMK A01 T10081077  RH  059%=      5-min Rain = 0
KWT1 130810Z 09003KT M01/M08 A3026 RMK A01 T10071076  RH  059%=      5-min Rain = 0
KWT1 130811Z 09003KT M01/M08 A3026 RMK A01 T10071075  RH  060%=      5-min Rain = 0
KWT1 130812Z 09003KT M01/M08 A3026 RMK A01 T10071075  RH  060%=      5-min Rain = 0
KWT1 130813Z 09003KT M01/M07 A3026 RMK A01 T10061074  RH  060%=      5-min Rain = 0
KWT1 130814Z 09003KT M01/M07 A3026 RMK A01 T10051073  RH  060%=      5-min Rain = 0
KWT1 130815Z 09002KT M01/M07 A3026 RMK A01 T10051074  RH  060%=      5-min Rain = 0
KWT1 130816Z 08001KT M01/M08 A3027 RMK A01 T10061077  RH  059%=      5-min Rain = 0
KWT1 130817Z 08001KT M01/M08 A3026 RMK A01 T10061079  RH  058%=      5-min Rain = 0
KWT1 130818Z 08001KT M01/M08 A3026 RMK A01 T10061080  RH  057%=      5-min Rain = 0
KWT1 130819Z 08001KT M01/M08 A3026 RMK A01 T10071081  RH  057%=      5-min Rain = 0
KWT1 130820Z 08002KT M01/M08 A3026 RMK A01 T10071081  RH  057%=      5-min Rain = 0
KWT1 130821Z 08002KT M01/M08 A3026 RMK A01 T10071082  RH  057%=      5-min Rain = 0
KWT1 130822Z 08002KT M01/M08 A3026 RMK A01 T10071082  RH  057%=      5-min Rain = 0
KWT1 130823Z 07002KT M01/M08 A3026 RMK A01 T10071082  RH  057%=      5-min Rain = 0
KWT1 130824Z 08002KT M01/M08 A3026 RMK A01 T10071083  RH  057%=      5-min Rain = 0
KWT1 130825Z 07002KT M01/M08 A3026 RMK A01 T10071082  RH  057%=      5-min Rain = 0
KWT1 130826Z 07002KT M01/M08 A3026 RMK A01 T10071082  RH  057%=      5-min Rain = 0
KWT1 130827Z 08002KT M01/M08 A3026 RMK A01 T10071081  RH  057%=      5-min Rain = 0
KWT1 130828Z 08002KT M01/M08 A3026 RMK A01 T10061081  RH  057%=      5-min Rain = 0
KWT1 130829Z 08002KT M01/M08 A3026 RMK A01 T10061081  RH  057%=      5-min Rain = 0
KWT1 130830Z 07002KT M01/M08 A3026 RMK A01 T10061081  RH  057%=      5-min Rain = 0
KWT1 130831Z 07002KT M01/M08 A3026 RMK A01 T10061082  RH  056%=      5-min Rain = 0
KWT1 130832Z 07002KT M01/M08 A3026 RMK A01 T10061082  RH  056%=      5-min Rain = 0
KWT1 130833Z 07002KT M01/M08 A3026 RMK A01 T10071083  RH  056%=      5-min Rain = 0
KWT1 130834Z 07003KT M01/M08 A3026 RMK A01 T10071083  RH  056%=      5-min Rain = 0
KWT1 130835Z 07003KT M01/M08 A3026 RMK A01 T10081084  RH  056%=      5-min Rain = 0
KWT1 130836Z 07003KT M01/M08 A3026 RMK A01 T10081084  RH  057%=      5-min Rain = 0
KWT1 130837Z 06003KT M01/M08 A3026 RMK A01 T10091084  RH  057%=      5-min Rain = 0
KWT1 130838Z 06003KT M01/M08 A3026 RMK A01 T10091084  RH  057%=      5-min Rain = 0
KWT1 130839Z 06003KT M01/M08 A3026 RMK A01 T10101084  RH  057%=      5-min Rain = 0
KWT1 130840Z 07003KT M01/M09 A3026 RMK A01 T10111085  RH  057%=      5-min Rain = 0
KWT1 130841Z 07003KT M01/M09 A3026 RMK A01 T10111085  RH  057%=      5-min Rain = 0
KWT1 130842Z 07003KT M01/M08 A3026 RMK A01 T10111084  RH  058%=      5-min Rain = 0
KWT1 130843Z 07003KT M01/M08 A3026 RMK A01 T10121084  RH  058%=      5-min Rain = 0
KWT1 130844Z 08003KT M01/M08 A3026 RMK A01 T10121084  RH  058%=      5-min Rain = 0
KWT1 130845Z 08003KT M01/M08 A3026 RMK A01 T10111084  RH  058%=      5-min Rain = 0
KWT1 130846Z 08003KT M01/M08 A3026 RMK A01 T10111083  RH  058%=      5-min Rain = 0
KWT1 130847Z 08003KT M01/M08 A3026 RMK A01 T10101082  RH  058%=      5-min Rain = 0
KWT1 130848Z 08003KT M01/M08 A3026 RMK A01 T10101083  RH  058%=      5-min Rain = 0
KWT1 130849Z 08002KT M01/M08 A3026 RMK A01 T10101083  RH  058%=      5-min Rain = 0
KWT1 130850Z 08002KT M01/M08 A3026 RMK A01 T10091082  RH  058%=      5-min Rain = 0
KWT1 130851Z 07002KT M01/M08 A3026 RMK A01 T10091082  RH  058%=      5-min Rain = 0
KWT1 130852Z 07002KT M01/M08 A3026 RMK A01 T10091082  RH  058%=      5-min Rain = 0
KWT1 130853Z 07002KT M01/M08 A3026 RMK A01 T10091082  RH  058%=      5-min Rain = 0
KWT1 130854Z 07003KT M01/M08 A3026 RMK A01 T10091082  RH  058%=      5-min Rain = 0
KWT1 130855Z 07002KT M01/M08 A3026 RMK A01 T10091082  RH  058%=      5-min Rain = 0
KWT1 130856Z 07002KT M01/M08 A3026 RMK A01 T10101083  RH  058%=      5-min Rain = 0
KWT1 130857Z 07002KT M01/M08 A3026 RMK A01 T10101082  RH  058%=      5-min Rain = 0
KWT1 130858Z 06002KT M01/M08 A3026 RMK A01 T10101082  RH  058%=      5-min Rain = 0
KWT1 130859Z 06002KT M01/M08 A3026 RMK A01 T10101083  RH  058%=      5-min Rain = 0
KWT1 130900Z 06003KT M01/M08 A3026 RMK A01 T10111083  RH  058%=      5-min Rain = 0
KWT1 130901Z 07003KT M01/M08 A3026 RMK A01 T10111083  RH  058%=      5-min Rain = 0
KWT1 130902Z 07002KT M01/M08 A3026 RMK A01 T10111082  RH  058%=      5-min Rain = 0
KWT1 130903Z 06002KT M01/M08 A3026 RMK A01 T10111082  RH  059%=      5-min Rain = 0
KWT1 130904Z 06002KT M01/M08 A3026 RMK A01 T10111081  RH  059%=      5-min Rain = 0
KWT1 130905Z 06002KT M01/M08 A3026 RMK A01 T10111081  RH  059%=      5-min Rain = 0
KWT1 130906Z 07002KT M01/M08 A3027 RMK A01 T10111081  RH  059%=      5-min Rain = 0
KWT1 130907Z 07002KT M01/M08 A3027 RMK A01 T10101081  RH  059%=      5-min Rain = 0
KWT1 130908Z 06003KT M01/M08 A3027 RMK A01 T10111081  RH  059%=      5-min Rain = 0
KWT1 130909Z 06003KT M01/M08 A3027 RMK A01 T10111081  RH  059%=      5-min Rain = 0
KWT1 130910Z 06003KT M01/M08 A3027 RMK A01 T10111081  RH  059%=      5-min Rain = 0
KWT1 130911Z 05003KT M01/M08 A3027 RMK A01 T10121081  RH  059%=      5-min Rain = 0
KWT1 130912Z 05004KT M01/M08 A3027 RMK A01 T10121081  RH  059%=      5-min Rain = 0
KWT1 130913Z 05004KT M01/M08 A3027 RMK A01 T10121081  RH  060%=      5-min Rain = 0
KWT1 130914Z 05004KT M01/M08 A3027 RMK A01 T10131081  RH  060%=      5-min Rain = 0
KWT1 130915Z 05004KT M01/M08 A3027 RMK A01 T10141081  RH  060%=      5-min Rain = 0
KWT1 130916Z 05004KT M01/M08 A3027 RMK A01 T10141080  RH  060%=      5-min Rain = 0
KWT1 130917Z 05004KT M01/M08 A3027 RMK A01 T10141081  RH  061%=      5-min Rain = 0
KWT1 130918Z 04004KT M02/M08 A3027 RMK A01 T10151081  RH  061%=      5-min Rain = 0
KWT1 130919Z 04004KT M02/M08 A3026 RMK A01 T10151081  RH  061%=      5-min Rain = 0
KWT1 130920Z 04004KT M02/M08 A3026 RMK A01 T10151081  RH  061%=      5-min Rain = 0
KWT1 130921Z 04004KT M02/M08 A3026 RMK A01 T10151080  RH  061%=      5-min Rain = 0
KWT1 130922Z 04004KT M02/M08 A3026 RMK A01 T10151080  RH  061%=      5-min Rain = 0
KWT1 130923Z 05004KT M02/M08 A3027 RMK A01 T10151079  RH  062%=      5-min Rain = 0
KWT1 130924Z 05004KT M02/M08 A3027 RMK A01 T10151079  RH  062%=      5-min Rain = 0
KWT1 130925Z 05004KT M02/M08 A3027 RMK A01 T10161079  RH  062%=      5-min Rain = 0
KWT1 130926Z 05004KT M02/M08 A3027 RMK A01 T10151079  RH  062%=      5-min Rain = 0
KWT1 130927Z 05004KT M02/M08 A3027 RMK A01 T10151078  RH  062%=      5-min Rain = 0
KWT1 130928Z 05004KT M02/M08 A3027 RMK A01 T10151078  RH  062%=      5-min Rain = 0
KWT1 130929Z 06004KT M02/M08 A3027 RMK A01 T10151078  RH  063%=      5-min Rain = 0
KWT1 130930Z 06004KT M02/M08 A3027 RMK A01 T10151077  RH  062%=      5-min Rain = 0
KWT1 130931Z 06004KT M01/M08 A3026 RMK A01 T10141076  RH  063%=      5-min Rain = 0
KWT1 130932Z 06004KT M01/M08 A3026 RMK A01 T10141077  RH  062%=      5-min Rain = 0
KWT1 130933Z 07004KT M01/M08 A3026 RMK A01 T10141077  RH  062%=      5-min Rain = 0
KWT1 130934Z 06003KT M01/M08 A3026 RMK A01 T10141077  RH  062%=      5-min Rain = 0
KWT1 130935Z 06003KT M01/M08 A3027 RMK A01 T10131075  RH  063%=      5-min Rain = 0
KWT1 130936Z 06003KT M01/M08 A3027 RMK A01 T10131075  RH  063%=      5-min Rain = 0
KWT1 130937Z 06003KT M01/M07 A3027 RMK A01 T10131074  RH  063%=      5-min Rain = 0
KWT1 130938Z 06003KT M01/M07 A3027 RMK A01 T10121073  RH  063%=      5-min Rain = 0
KWT1 130939Z 06003KT M01/M07 A3027 RMK A01 T10121073  RH  063%=      5-min Rain = 0
KWT1 130940Z 07003KT M01/M07 A3027 RMK A01 T10111072  RH  063%=      5-min Rain = 0
KWT1 130941Z 06003KT M01/M07 A3027 RMK A01 T10111072  RH  063%=      5-min Rain = 0
KWT1 130942Z 07003KT M01/M07 A3027 RMK A01 T10101072  RH  063%=      5-min Rain = 0
KWT1 130943Z 06003KT M01/M07 A3027 RMK A01 T10101072  RH  063%=      5-min Rain = 0
KWT1 130944Z 06003KT M01/M07 A3027 RMK A01 T10101071  RH  063%=      5-min Rain = 0
KWT1 130945Z 07003KT M01/M07 A3027 RMK A01 T10111072  RH  063%=      5-min Rain = 0
KWT1 130946Z 07003KT M01/M07 A3027 RMK A01 T10111072  RH  063%=      5-min Rain = 0
KWT1 130947Z 06003KT M01/M07 A3027 RMK A01 T10111071  RH  063%=      5-min Rain = 0
KWT1 130948Z 06003KT M01/M07 A3027 RMK A01 T10111071  RH  064%=      5-min Rain = 0
KWT1 130949Z 06003KT M01/M07 A3027 RMK A01 T10111071  RH  064%=      5-min Rain = 0
KWT1 130950Z 06004KT M01/M07 A3027 RMK A01 T10111071  RH  064%=      5-min Rain = 0
KWT1 130951Z 06004KT M01/M07 A3027 RMK A01 T10111070  RH  064%=      5-min Rain = 0
KWT1 130952Z 06004KT M01/M07 A3027 RMK A01 T10121071  RH  064%=      5-min Rain = 0
KWT1 130953Z 07004KT M01/M07 A3027 RMK A01 T10121071  RH  064%=      5-min Rain = 0
KWT1 130954Z 07004KT M01/M07 A3027 RMK A01 T10121072  RH  064%=      5-min Rain = 0
KWT1 130955Z 07004KT M01/M07 A3027 RMK A01 T10131072  RH  064%=      5-min Rain = 0
KWT1 130956Z 07004KT M01/M07 A3027 RMK A01 T10131072  RH  064%=      5-min Rain = 0
KWT1 130957Z 07004KT M01/M07 A3027 RMK A01 T10131072  RH  064%=      5-min Rain = 0
KWT1 130958Z 06003KT M01/M07 A3027 RMK A01 T10131072  RH  064%=      5-min Rain = 0
KWT1 130959Z 06003KT M01/M07 A3027 RMK A01 T10141073  RH  064%=      5-min Rain = 0
KWT1 131000Z 06003KT M01/M07 A3027 RMK A01 T10141072  RH  065%=      5-min Rain = 0
KWT1 131001Z 06002KT M01/M07 A3027 RMK A01 T10141072  RH  065%=      5-min Rain = 0
KWT1 131002Z 06002KT M02/M07 A3027 RMK A01 T10151073  RH  064%=      5-min Rain = 0
KWT1 131003Z 06003KT M02/M08 A3027 RMK A01 T10161075  RH  064%=      5-min Rain = 0
KWT1 131004Z 06003KT M02/M08 A3027 RMK A01 T10161075  RH  064%=      5-min Rain = 0
KWT1 131005Z 06003KT M02/M07 A3027 RMK A01 T10171074  RH  065%=      5-min Rain = 0
KWT1 131006Z 06003KT M02/M07 A3027 RMK A01 T10171074  RH  065%=      5-min Rain = 0
KWT1 131007Z 06002KT M02/M08 A3027 RMK A01 T10171075  RH  065%=      5-min Rain = 0
KWT1 131008Z 06002KT M02/M08 A3027 RMK A01 T10171075  RH  065%=      5-min Rain = 0
KWT1 131009Z 06003KT M02/M08 A3027 RMK A01 T10171075  RH  065%=      5-min Rain = 0
KWT1 131010Z 05003KT M02/M08 A3027 RMK A01 T10171075  RH  065%=      5-min Rain = 0
KWT1 131011Z 05003KT M02/M07 A3026 RMK A01 T10161074  RH  065%=      5-min Rain = 0
KWT1 131012Z 05003KT M02/M07 A3026 RMK A01 T10161074  RH  064%=      5-min Rain = 0
KWT1 131013Z 04003KT M02/M07 A3026 RMK A01 T10151074  RH  064%=      5-min Rain = 0
KWT1 131014Z 04003KT M02/M07 A3027 RMK A01 T10151074  RH  064%=      5-min Rain = 0
KWT1 131015Z 03003KT M02/M08 A3026 RMK A01 T10151075  RH  064%=      5-min Rain = 0
KWT1 131016Z 03003KT M02/M07 A3027 RMK A01 T10151074  RH  064%=      5-min Rain = 0
KWT1 131017Z 03002KT M02/M08 A3027 RMK A01 T10161075  RH  064%=      5-min Rain = 0
KWT1 131018Z 03003KT M02/M08 A3027 RMK A01 T10171076  RH  064%=      5-min Rain = 0
KWT1 131019Z 04003KT M02/M08 A3027 RMK A01 T10171076  RH  064%=      5-min Rain = 0
KWT1 131020Z 03003KT M02/M08 A3027 RMK A01 T10171075  RH  064%=      5-min Rain = 0
KWT1 131021Z 03003KT M02/M08 A3027 RMK A01 T10171075  RH  065%=      5-min Rain = 0
KWT1 131022Z 03003KT M02/M08 A3027 RMK A01 T10171075  RH  065%=      5-min Rain = 0
KWT1 131023Z 03003KT M02/M08 A3027 RMK A01 T10171075  RH  065%=      5-min Rain = 0
KWT1 131024Z 03003KT M02/M07 A3027 RMK A01 T10171074  RH  065%=      5-min Rain = 0
KWT1 131025Z 03003KT M02/M07 A3027 RMK A01 T10171074  RH  065%=      5-min Rain = 0
KWT1 131026Z 03003KT M02/M07 A3027 RMK A01 T10171074  RH  065%=      5-min Rain = 0
KWT1 131027Z 02003KT M02/M07 A3027 RMK A01 T10161074  RH  065%=      5-min Rain = 0
KWT1 131028Z 02003KT M02/M07 A3027 RMK A01 T10161074  RH  065%=      5-min Rain = 0
KWT1 131029Z 02003KT M02/M07 A3027 RMK A01 T10161074  RH  065%=      5-min Rain = 0
KWT1 131030Z 02003KT M02/M07 A3027 RMK A01 T10161074  RH  065%=      5-min Rain = 0
KWT1 131031Z 02003KT M02/M07 A3027 RMK A01 T10161074  RH  065%=      5-min Rain = 0
KWT1 131032Z 02003KT M02/M07 A3027 RMK A01 T10161074  RH  065%=      5-min Rain = 0
KWT1 131033Z 02003KT M02/M07 A3027 RMK A01 T10161073  RH  065%=      5-min Rain = 0
KWT1 131034Z 03003KT M02/M07 A3027 RMK A01 T10161073  RH  065%=      5-min Rain = 0
KWT1 131035Z 03003KT M02/M07 A3027 RMK A01 T10161072  RH  065%=      5-min Rain = 0
KWT1 131036Z 02003KT M02/M07 A3027 RMK A01 T10151071  RH  065%=      5-min Rain = 0
KWT1 131037Z 02003KT M01/M07 A3027 RMK A01 T10141071  RH  065%=      5-min Rain = 0
KWT1 131038Z 02002KT M01/M07 A3027 RMK A01 T10131070  RH  065%=      5-min Rain = 0
KWT1 131039Z 02002KT M01/M07 A3027 RMK A01 T10121070  RH  065%=      5-min Rain = 0
KWT1 131040Z 02002KT M01/M07 A3027 RMK A01 T10121070  RH  065%=      5-min Rain = 0
KWT1 131041Z 01002KT M01/M07 A3027 RMK A01 T10111069  RH  064%=      5-min Rain = 0
KWT1 131042Z 01002KT M01/M07 A3027 RMK A01 T10101069  RH  064%=      5-min Rain = 0
KWT1 131043Z 01002KT M01/M07 A3027 RMK A01 T10101069  RH  064%=      5-min Rain = 0
KWT1 131044Z 01002KT M01/M07 A3027 RMK A01 T10091070  RH  063%=      5-min Rain = 0
KWT1 131045Z 01002KT M01/M07 A3027 RMK A01 T10091071  RH  063%=      5-min Rain = 0
KWT1 131046Z 01002KT M01/M07 A3027 RMK A01 T10091070  RH  063%=      5-min Rain = 0
KWT1 131047Z 01002KT M01/M07 A3027 RMK A01 T10081070  RH  063%=      5-min Rain = 0
KWT1 131048Z 01002KT M01/M07 A3027 RMK A01 T10081070  RH  063%=      5-min Rain = 0
KWT1 131049Z 01002KT M01/M07 A3027 RMK A01 T10081069  RH  063%=      5-min Rain = 0
KWT1 131050Z 01002KT M01/M07 A3027 RMK A01 T10071069  RH  063%=      5-min Rain = 0
KWT1 131051Z 00001KT M01/M07 A3027 RMK A01 T10061068  RH  063%=      5-min Rain = 0
KWT1 131052Z 36001KT M01/M07 A3027 RMK A01 T10061068  RH  063%=      5-min Rain = 0
KWT1 131053Z 00001KT M01/M07 A3028 RMK A01 T10061068  RH  063%=      5-min Rain = 0
KWT1 131054Z 35001KT M01/M07 A3028 RMK A01 T10061068  RH  063%=      5-min Rain = 0
KWT1 131055Z 35001KT M01/M07 A3028 RMK A01 T10051068  RH  062%=      5-min Rain = 0
KWT1 131056Z 35001KT M01/M07 A3028 RMK A01 T10051068  RH  062%=      5-min Rain = 0
KWT1 131057Z 00001KT M01/M07 A3028 RMK A01 T10051069  RH  062%=      5-min Rain = 0
KWT1 131058Z 35001KT M01/M07 A3028 RMK A01 T10051069  RH  062%=      5-min Rain = 0
KWT1 131059Z 35001KT M00/M07 A3028 RMK A01 T10041068  RH  062%=      5-min Rain = 0
KWT1 131100Z 36001KT M00/M07 A3028 RMK A01 T10041068  RH  062%=      5-min Rain = 0
KWT1 131101Z 01001KT M00/M07 A3028 RMK A01 T10041068  RH  062%=      5-min Rain = 0
KWT1 131102Z 02001KT M00/M07 A3028 RMK A01 T10041068  RH  062%=      5-min Rain = 0
KWT1 131103Z 03002KT M00/M07 A3028 RMK A01 T10041067  RH  062%=      5-min Rain = 0
KWT1 131104Z 03002KT M00/M07 A3028 RMK A01 T10031067  RH  062%=      5-min Rain = 0
KWT1 131105Z 02002KT M00/M07 A3028 RMK A01 T10031066  RH  062%=      5-min Rain = 0
KWT1 131106Z 02002KT M00/M07 A3028 RMK A01 T10021066  RH  062%=      5-min Rain = 0
KWT1 131107Z 01002KT M00/M07 A3029 RMK A01 T10021067  RH  062%=      5-min Rain = 0
KWT1 131108Z 01002KT M00/M07 A3029 RMK A01 T10021066  RH  062%=      5-min Rain = 0
KWT1 131109Z 01002KT M00/M07 A3029 RMK A01 T10021066  RH  062%=      5-min Rain = 0
KWT1 131110Z 00002KT M00/M07 A3029 RMK A01 T10011066  RH  062%=      5-min Rain = 0
KWT1 131111Z 35002KT M00/M07 A3029 RMK A01 T10011065  RH  062%=      5-min Rain = 0
KWT1 131112Z 36002KT M00/M07 A3029 RMK A01 T10011065  RH  062%=      5-min Rain = 0
KWT1 131113Z 00002KT 00/07 A303 RMK A01 T00-00-65  RH  062%=      5-min Rain = 0
KWT1 131114Z 00002KT 00/06 A303 RMK A01 T00000-64  RH  062%=      5-min Rain = 0
KWT1 131115Z 01002KT 00/06 A303 RMK A01 T00000-64  RH  062%=      5-min Rain = 0
KWT1 131116Z 00003KT 00/M06 A303 RMK A01 T00011064  RH  062%=      5-min Rain = 0
KWT1 131117Z 36003KT 00/M06 A303 RMK A01 T00011064  RH  062%=      5-min Rain = 0
KWT1 131118Z 35002KT 00/M06 A303 RMK A01 T00021063  RH  061%=      5-min Rain = 0
KWT1 131119Z 35003KT 00/M06 A303 RMK A01 T00021064  RH  061%=      5-min Rain = 0
KWT1 131120Z 36002KT 00/M06 A303 RMK A01 T00031063  RH  061%=      5-min Rain = 0
KWT1 131121Z 00003KT 00/M06 A303 RMK A01 T00031063  RH  061%=      5-min Rain = 0
KWT1 131122Z 01003KT 00/M06 A303 RMK A01 T00031063  RH  061%=      5-min Rain = 0
KWT1 131123Z 36003KT 00/M06 A303 RMK A01 T00041062  RH  061%=      5-min Rain = 0
KWT1 131124Z 35003KT 00/M06 A303 RMK A01 T00041062  RH  061%=      5-min Rain = 0
KWT1 131125Z 34002KT 01/M06 A303 RMK A01 T00051062  RH  061%=      5-min Rain = 0
KWT1 131126Z 35003KT 00/M06 A303 RMK A01 T00041062  RH  061%=      5-min Rain = 0
KWT1 131127Z 35003KT 01/M06 A303 RMK A01 T00051062  RH  061%=      5-min Rain = 0
KWT1 131128Z 35004KT 01/M06 A303 RMK A01 T00051063  RH  060%=      5-min Rain = 0
KWT1 131129Z 35004KT 01/M06 A303 RMK A01 T00051063  RH  060%=      5-min Rain = 0
KWT1 131130Z 36003KT 01/M06 A303 RMK A01 T00051063  RH  060%=      5-min Rain = 0
KWT1 131131Z 36003KT 01/M06 A303 RMK A01 T00051063  RH  061%=      5-min Rain = 0
KWT1 131132Z 36003KT 01/M06 A303 RMK A01 T00051062  RH  061%=      5-min Rain = 0
KWT1 131133Z 35004KT 01/M06 A303 RMK A01 T00051062  RH  061%=      5-min Rain = 0
KWT1 131134Z 36004KT 01/M06 A303 RMK A01 T00051062  RH  061%=      5-min Rain = 0
KWT1 131135Z 36004KT 01/M06 A303 RMK A01 T00051062  RH  061%=      5-min Rain = 0
KWT1 131136Z 01004KT 01/M06 A303 RMK A01 T00051062  RH  061%=      5-min Rain = 0
KWT1 131137Z 00004KT 01/M06 A303 RMK A01 T00051062  RH  061%=      5-min Rain = 0
KWT1 131138Z 00003KT 01/M06 A303 RMK A01 T00051062  RH  061%=      5-min Rain = 0
KWT1 131139Z 00003KT 01/M06 A303 RMK A01 T00061062  RH  061%=      5-min Rain = 0
KWT1 131140Z 35003KT 01/M06 A303 RMK A01 T00051063  RH  060%=      5-min Rain = 0
KWT1 131141Z 35003KT 01/M06 A303 RMK A01 T00051063  RH  060%=      5-min Rain = 0
KWT1 131142Z 36002KT 01/M06 A303 RMK A01 T00051063  RH  060%=      5-min Rain = 0
KWT1 131143Z 36003KT 01/M06 A303 RMK A01 T00051063  RH  060%=      5-min Rain = 0
KWT1 131144Z 35003KT 01/M06 A303 RMK A01 T00051063  RH  060%=      5-min Rain = 0
KWT1 131145Z 35002KT 01/M06 A303 RMK A01 T00051063  RH  060%=      5-min Rain = 0
KWT1 131146Z 34002KT 01/M06 A303 RMK A01 T00051063  RH  060%=      5-min Rain = 0
KWT1 131147Z 34002KT 01/M06 A303 RMK A01 T00051063  RH  060%=      5-min Rain = 0
KWT1 131148Z 34002KT 01/M06 A303 RMK A01 T00051063  RH  060%=      5-min Rain = 0
KWT1 131149Z 35002KT 01/M06 A303 RMK A01 T00051064  RH  060%=      5-min Rain = 0
KWT1 131150Z 00002KT 01/M06 A3031 RMK A01 T00051063  RH  060%=      5-min Rain = 0
KWT1 131151Z 01001KT 01/M06 A3031 RMK A01 T00051063  RH  060%=      5-min Rain = 0
KWT1 131152Z 01001KT 01/M06 A303 RMK A01 T00051063  RH  060%=      5-min Rain = 0
KWT1 131153Z 01001KT 01/M06 A303 RMK A01 T00051063  RH  060%=      5-min Rain = 0
KWT1 131154Z 01001KT 01/M06 A303 RMK A01 T00051063  RH  060%=      5-min Rain = 0
KWT1 131155Z 01002KT 01/M06 A303 RMK A01 T00051063  RH  060%=      5-min Rain = 0
KWT1 131156Z 01002KT 01/M06 A303 RMK A01 T00051063  RH  060%=      5-min Rain = 0
KWT1 131157Z 01002KT 00/M06 A303 RMK A01 T00041064  RH  060%=      5-min Rain = 0
KWT1 131158Z 01002KT 00/M06 A303 RMK A01 T00041064  RH  060%=      5-min Rain = 0
KWT1 131159Z 02002KT 00/M06 A3031 RMK A01 T00041064  RH  060%=      5-min Rain = 0
KWT1 131200Z 02001KT 00/M06 A3031 RMK A01 T00041064  RH  060%=      5-min Rain = 0
KWT1 131201Z 01002KT 00/M06 A303 RMK A01 T00041064  RH  060%=      5-min Rain = 0
KWT1 131202Z 02002KT 01/M06 A303 RMK A01 T00051064  RH  060%=      5-min Rain = 0
KWT1 131203Z 02002KT 01/M06 A303 RMK A01 T00051064  RH  060%=      5-min Rain = 0
KWT1 131204Z 02002KT 01/M06 A303 RMK A01 T00051064  RH  060%=      5-min Rain = 0
KWT1 131205Z 01002KT 01/M06 A303 RMK A01 T00051064  RH  060%=      5-min Rain = 0
KWT1 131206Z 00002KT 01/M06 A303 RMK A01 T00051064  RH  060%=      5-min Rain = 0
KWT1 131207Z 01002KT 01/M06 A303 RMK A01 T00051064  RH  060%=      5-min Rain = 0
KWT1 131208Z 02002KT 01/M06 A303 RMK A01 T00051064  RH  060%=      5-min Rain = 0
KWT1 131209Z 02002KT 01/M06 A303 RMK A01 T00051064  RH  060%=      5-min Rain = 0
KWT1 131210Z 02002KT 01/M06 A303 RMK A01 T00051064  RH  060%=      5-min Rain = 0
KWT1 131211Z 02002KT 01/M06 A303 RMK A01 T00051064  RH  060%=      5-min Rain = 0
KWT1 131212Z 02002KT 01/M06 A303 RMK A01 T00061064  RH  059%=      5-min Rain = 0
KWT1 131213Z 03002KT 01/M07 A303 RMK A01 T00061065  RH  059%=      5-min Rain = 0
KWT1 131214Z 05002KT 01/M07 A303 RMK A01 T00061065  RH  059%=      5-min Rain = 0
KWT1 131215Z 04002KT 01/M07 A303 RMK A01 T00061065  RH  059%=      5-min Rain = 0
KWT1 131216Z 05003KT 01/M07 A303 RMK A01 T00061065  RH  059%=      5-min Rain = 0
KWT1 131217Z 04003KT 01/M06 A303 RMK A01 T00061064  RH  059%=      5-min Rain = 0
KWT1 131218Z 04003KT 01/M06 A303 RMK A01 T00071063  RH  060%=      5-min Rain = 0
KWT1 131219Z 05003KT 01/M06 A303 RMK A01 T00071061  RH  060%=      5-min Rain = 0
KWT1 131220Z 04002KT 01/M06 A303 RMK A01 T00071061  RH  060%=      5-min Rain = 0
KWT1 131221Z 03002KT 01/M06 A303 RMK A01 T00071062  RH  060%=      5-min Rain = 0
KWT1 131222Z 03002KT 01/M06 A303 RMK A01 T00071062  RH  060%=      5-min Rain = 0
KWT1 131223Z 04002KT 01/M06 A303 RMK A01 T00071062  RH  060%=      5-min Rain = 0
KWT1 131224Z 03002KT 01/M06 A303 RMK A01 T00081062  RH  060%=      5-min Rain = 0
KWT1 131225Z 03002KT 01/M06 A303 RMK A01 T00081062  RH  060%=      5-min Rain = 0
KWT1 131226Z 03002KT 01/M06 A3029 RMK A01 T00071062  RH  060%=      5-min Rain = 0
KWT1 131227Z 04002KT 01/M06 A3029 RMK A01 T00071062  RH  060%=      5-min Rain = 0
KWT1 131228Z 05002KT 01/M06 A3029 RMK A01 T00081063  RH  059%=      5-min Rain = 0
KWT1 131229Z 04002KT 01/M06 A3029 RMK A01 T00081062  RH  059%=      5-min Rain = 0
KWT1 131230Z 07001KT 01/M06 A303 RMK A01 T00071063  RH  059%=      5-min Rain = 0
KWT1 131231Z 06002KT 01/M06 A303 RMK A01 T00071062  RH  060%=      5-min Rain = 0
KWT1 131232Z 06002KT 01/M06 A303 RMK A01 T00071062  RH  060%=      5-min Rain = 0
KWT1 131233Z 04001KT 01/M06 A303 RMK A01 T00081062  RH  060%=      5-min Rain = 0
KWT1 131234Z 03002KT 01/M06 A303 RMK A01 T00081062  RH  060%=      5-min Rain = 0
KWT1 131235Z 05002KT 01/M06 A303 RMK A01 T00081062  RH  060%=      5-min Rain = 0
KWT1 131236Z 03002KT 01/M06 A303 RMK A01 T00071062  RH  060%=      5-min Rain = 0
KWT1 131237Z 02002KT 01/M06 A303 RMK A01 T00081061  RH  060%=      5-min Rain = 0
KWT1 131238Z 02002KT 01/M06 A303 RMK A01 T00081061  RH  060%=      5-min Rain = 0
KWT1 131239Z 02001KT 01/M06 A303 RMK A01 T00081061  RH  060%=      5-min Rain = 0
KWT1 131240Z 01002KT 01/M06 A303 RMK A01 T00081061  RH  060%=      5-min Rain = 0
KWT1 131241Z 02002KT 01/M06 A3029 RMK A01 T00081061  RH  060%=      5-min Rain = 0
KWT1 131242Z 02001KT 01/M06 A303 RMK A01 T00081061  RH  060%=      5-min Rain = 0
KWT1 131243Z 01001KT 01/M06 A303 RMK A01 T00081061  RH  060%=      5-min Rain = 0
KWT1 131244Z 03001KT 01/M06 A303 RMK A01 T00081061  RH  060%=      5-min Rain = 0
KWT1 131245Z 04002KT 01/M06 A303 RMK A01 T00091060  RH  060%=      5-min Rain = 0
KWT1 131246Z 04002KT 01/M06 A303 RMK A01 T00091060  RH  060%=      5-min Rain = 0
KWT1 131247Z 05002KT 01/M06 A303 RMK A01 T00091060  RH  060%=      5-min Rain = 0
KWT1 131248Z 05002KT 01/M06 A303 RMK A01 T00091060  RH  060%=      5-min Rain = 0
KWT1 131249Z 04002KT 01/M06 A303 RMK A01 T00101059  RH  060%=      5-min Rain = 0
KWT1 131250Z 04002KT 01/M06 A303 RMK A01 T00101060  RH  060%=      5-min Rain = 0
KWT1 131251Z 03002KT 01/M06 A303 RMK A01 T00101060  RH  060%=      5-min Rain = 0
KWT1 131252Z 04002KT 01/M06 A303 RMK A01 T00101060  RH  060%=      5-min Rain = 0
KWT1 131253Z 04002KT 01/M06 A303 RMK A01 T00101060  RH  060%=      5-min Rain = 0
KWT1 131254Z 03002KT 01/M06 A303 RMK A01 T00101059  RH  060%=      5-min Rain = 0
KWT1 131255Z 03002KT 01/M06 A303 RMK A01 T00111059  RH  060%=      5-min Rain = 0
KWT1 131256Z 02002KT 01/M06 A303 RMK A01 T00111059  RH  060%=      5-min Rain = 0
KWT1 131257Z 02002KT 01/M06 A303 RMK A01 T00111059  RH  060%=      5-min Rain = 0
KWT1 131258Z 02002KT 01/M06 A303 RMK A01 T00111059  RH  059%=      5-min Rain = 0
KWT1 131259Z 03001KT 01/M06 A303 RMK A01 T00111059  RH  059%=      5-min Rain = 0
KWT1 131300Z 03001KT 01/M06 A303 RMK A01 T00111059  RH  059%=      5-min Rain = 0
KWT1 131301Z 03001KT 01/M06 A303 RMK A01 T00111059  RH  059%=      5-min Rain = 0
KWT1 131302Z 03002KT 01/M06 A303 RMK A01 T00121059  RH  059%=      5-min Rain = 0
KWT1 131303Z 03002KT 01/M06 A303 RMK A01 T00121059  RH  059%=      5-min Rain = 0
KWT1 131304Z 03002KT 01/M06 A303 RMK A01 T00121059  RH  059%=      5-min Rain = 0
KWT1 131305Z 03002KT 01/M06 A303 RMK A01 T00121059  RH  059%=      5-min Rain = 0
KWT1 131306Z 03002KT 01/M06 A303 RMK A01 T00121059  RH  059%=      5-min Rain = 0
KWT1 131307Z 03002KT 01/M06 A303 RMK A01 T00111059  RH  059%=      5-min Rain = 0
KWT1 131308Z 03002KT 01/M06 A303 RMK A01 T00121059  RH  059%=      5-min Rain = 0
KWT1 131309Z 03002KT 01/M06 A303 RMK A01 T00121059  RH  059%=      5-min Rain = 0
KWT1 131310Z 04002KT 01/M06 A303 RMK A01 T00121059  RH  059%=      5-min Rain = 0
KWT1 131311Z 04002KT 01/M06 A303 RMK A01 T00121059  RH  059%=      5-min Rain = 0
KWT1 131312Z 04001KT 01/M06 A303 RMK A01 T00121059  RH  059%=      5-min Rain = 0
KWT1 131313Z 05002KT 01/M06 A3031 RMK A01 T00121058  RH  059%=      5-min Rain = 0
KWT1 131314Z 04002KT 01/M06 A3031 RMK A01 T00121058  RH  059%=      5-min Rain = 0
KWT1 131315Z 03002KT 01/M06 A3031 RMK A01 T00121058  RH  059%=      5-min Rain = 0
KWT1 131316Z 02001KT 01/M06 A3031 RMK A01 T00131058  RH  059%=      5-min Rain = 0
KWT1 131317Z 01002KT 01/M06 A3031 RMK A01 T00131058  RH  059%=      5-min Rain = 0
KWT1 131318Z 02002KT 01/M06 A3031 RMK A01 T00131058  RH  059%=      5-min Rain = 0
KWT1 131319Z 02002KT 01/M06 A3031 RMK A01 T00141057  RH  059%=      5-min Rain = 0
KWT1 131320Z 03002KT 01/M06 A3031 RMK A01 T00141058  RH  059%=      5-min Rain = 0
KWT1 131321Z 05002KT 01/M06 A3031 RMK A01 T00141058  RH  059%=      5-min Rain = 0
KWT1 131322Z 05002KT 01/M06 A3031 RMK A01 T00141058  RH  059%=      5-min Rain = 0
KWT1 131323Z 05002KT 01/M06 A3031 RMK A01 T00141057  RH  059%=      5-min Rain = 0
KWT1 131324Z 07002KT 01/M06 A3031 RMK A01 T00141057  RH  059%=      5-min Rain = 0
KWT1 131325Z 07002KT 01/M06 A3031 RMK A01 T00141057  RH  059%=      5-min Rain = 0
KWT1 131326Z 07002KT 02/M06 A3031 RMK A01 T00151057  RH  059%=      5-min Rain = 0
KWT1 131327Z 06002KT 02/M06 A3031 RMK A01 T00151057  RH  059%=      5-min Rain = 0
KWT1 131328Z 07002KT 02/M06 A3031 RMK A01 T00151057  RH  059%=      5-min Rain = 0
KWT1 131329Z 07002KT 02/M06 A3031 RMK A01 T00151056  RH  059%=      5-min Rain = 0
KWT1 131330Z 08002KT 02/M06 A3031 RMK A01 T00151056  RH  059%=      5-min Rain = 0
KWT1 131331Z 08001KT 02/M06 A3031 RMK A01 T00151056  RH  059%=      5-min Rain = 0
KWT1 131332Z 08002KT 02/M06 A3031 RMK A01 T00151056  RH  059%=      5-min Rain = 0
KWT1 131333Z 08002KT 02/M06 A3031 RMK A01 T00161055  RH  059%=      5-min Rain = 0
KWT1 131334Z 09003KT 02/M06 A3032 RMK A01 T00161055  RH  059%=      5-min Rain = 0
KWT1 131335Z 09003KT 02/M05 A3032 RMK A01 T00161054  RH  059%=      5-min Rain = 0
KWT1 131336Z 09003KT 02/M05 A3032 RMK A01 T00171054  RH  059%=      5-min Rain = 0
KWT1 131337Z 10003KT 02/M05 A3032 RMK A01 T00171054  RH  059%=      5-min Rain = 0
KWT1 131338Z 10002KT 02/M05 A3032 RMK A01 T00181054  RH  059%=      5-min Rain = 0
KWT1 131339Z 09002KT 02/M05 A3032 RMK A01 T00181054  RH  059%=      5-min Rain = 0
KWT1 131340Z 09002KT 02/M05 A3032 RMK A01 T00191053  RH  059%=      5-min Rain = 0
KWT1 131341Z 09002KT 02/M05 A3032 RMK A01 T00191053  RH  059%=      5-min Rain = 0
KWT1 131342Z 09002KT 02/M05 A3032 RMK A01 T00201053  RH  058%=      5-min Rain = 0
KWT1 131343Z 09003KT 02/M05 A3032 RMK A01 T00201053  RH  059%=      5-min Rain = 0
KWT1 131344Z 10002KT 02/M05 A3032 RMK A01 T00201053  RH  058%=      5-min Rain = 0
KWT1 131345Z 10002KT 02/M05 A3032 RMK A01 T00211053  RH  058%=      5-min Rain = 0
KWT1 131346Z 10003KT 02/M05 A3032 RMK A01 T00211052  RH  058%=      5-min Rain = 0
KWT1 131347Z 10003KT 02/M05 A3032 RMK A01 T00221052  RH  058%=      5-min Rain = 0
KWT1 131348Z 08003KT 02/M05 A3032 RMK A01 T00221052  RH  058%=      5-min Rain = 0
KWT1 131349Z 09003KT 02/M05 A3032 RMK A01 T00221052  RH  058%=      5-min Rain = 0
KWT1 131350Z 09003KT 02/M05 A3032 RMK A01 T00221052  RH  058%=      5-min Rain = 0
KWT1 131351Z 08003KT 02/M05 A3032 RMK A01 T00221051  RH  058%=      5-min Rain = 0
KWT1 131352Z 08003KT 02/M05 A3032 RMK A01 T00221051  RH  059%=      5-min Rain = 0
KWT1 131353Z 08003KT 02/M05 A3032 RMK A01 T00231050  RH  059%=      5-min Rain = 0
KWT1 131354Z 08003KT 02/M05 A3032 RMK A01 T00231050  RH  059%=      5-min Rain = 0
KWT1 131355Z 08003KT 02/M05 A3033 RMK A01 T00231050  RH  059%=      5-min Rain = 0
KWT1 131356Z 09004KT 02/M05 A3032 RMK A01 T00231049  RH  059%=      5-min Rain = 0
KWT1 131357Z 09003KT 02/M05 A3032 RMK A01 T00241049  RH  059%=      5-min Rain = 0
KWT1 131358Z 10003KT 02/M05 A3032 RMK A01 T00241048  RH  059%=      5-min Rain = 0
KWT1 131359Z 09003KT 02/M05 A3032 RMK A01 T00241048  RH  059%=      5-min Rain = 0
KWT1 131400Z 09004KT 03/M05 A3032 RMK A01 T00251047  RH  059%=      5-min Rain = 0
KWT1 131401Z 10004KT 03/M05 A3032 RMK A01 T00261047  RH  059%=      5-min Rain = 0
KWT1 131402Z 10004KT 03/M05 A3032 RMK A01 T00261046  RH  059%=      5-min Rain = 0
KWT1 131403Z 10004KT 03/M05 A3032 RMK A01 T00261046  RH  059%=      5-min Rain = 0
KWT1 131404Z 09004KT 03/M05 A3032 RMK A01 T00271046  RH  059%=      5-min Rain = 0
KWT1 131405Z 09004KT 03/M04 A3032 RMK A01 T00271044  RH  059%=      5-min Rain = 0
KWT1 131406Z 09004KT 03/M04 A3033 RMK A01 T00281043  RH  059%=      5-min Rain = 0
KWT1 131407Z 09004KT 03/M04 A3033 RMK A01 T00291043  RH  059%=      5-min Rain = 0
KWT1 131408Z 09004KT 03/M04 A3033 RMK A01 T00291042  RH  059%=      5-min Rain = 0
KWT1 131409Z 09003KT 03/M04 A3033 RMK A01 T00301042  RH  059%=      5-min Rain = 0
KWT1 131410Z 10004KT 03/M04 A3033 RMK A01 T00301041  RH  060%=      5-min Rain = 0
KWT1 131411Z 10004KT 03/M04 A3033 RMK A01 T00311040  RH  060%=      5-min Rain = 0
KWT1 131412Z 09003KT 03/M04 A3033 RMK A01 T00311039  RH  060%=      5-min Rain = 0
KWT1 131413Z 09003KT 03/M04 A3033 RMK A01 T00321039  RH  060%=      5-min Rain = 0
KWT1 131414Z 09004KT 03/M04 A3033 RMK A01 T00321039  RH  060%=      5-min Rain = 0
KWT1 131415Z 09004KT 03/M04 A3033 RMK A01 T00331038  RH  060%=      5-min Rain = 0
KWT1 131416Z 10004KT 03/M04 A3033 RMK A01 T00331037  RH  060%=      5-min Rain = 0
KWT1 131417Z 10005KT 04/M04 A3033 RMK A01 T00351036  RH  060%=      5-min Rain = 0
KWT1 131418Z 09005KT 04/M04 A3033 RMK A01 T00351036  RH  060%=      5-min Rain = 0
KWT1 131419Z 09006KT 04/M04 A3033 RMK A01 T00351036  RH  060%=      5-min Rain = 0
KWT1 131420Z 10005KT 04/M04 A3033 RMK A01 T00361036  RH  060%=      5-min Rain = 0
KWT1 131421Z 09004KT 04/M04 A3033 RMK A01 T00351036  RH  060%=      5-min Rain = 0
KWT1 131422Z 10005KT 04/M04 A3033 RMK A01 T00351036  RH  060%=      5-min Rain = 0
KWT1 131423Z 09004KT 04/M04 A3033 RMK A01 T00351035  RH  060%=      5-min Rain = 0
KWT1 131424Z 09005KT 04/M04 A3033 RMK A01 T00361035  RH  060%=      5-min Rain = 0
KWT1 131425Z 09005KT 04/M04 A3033 RMK A01 T00351035  RH  060%=      5-min Rain = 0
KWT1 131426Z 08005KT 04/M03 A3033 RMK A01 T00351034  RH  060%=      5-min Rain = 0
KWT1 131427Z 08005KT 04/M03 A3033 RMK A01 T00351034  RH  060%=      5-min Rain = 0
KWT1 131428Z 08005KT 04/M03 A3033 RMK A01 T00351034  RH  060%=      5-min Rain = 0
KWT1 131429Z 09005KT 04/M03 A3033 RMK A01 T00351034  RH  060%=      5-min Rain = 0
KWT1 131430Z 08005KT 04/M03 A3033 RMK A01 T00361033  RH  061%=      5-min Rain = 0
KWT1 131431Z 08005KT 04/M03 A3033 RMK A01 T00361033  RH  060%=      5-min Rain = 0
KWT1 131432Z 09005KT 04/M03 A3033 RMK A01 T00361033  RH  060%=      5-min Rain = 0
KWT1 131433Z 10005KT 04/M03 A3033 RMK A01 T00361033  RH  061%=      5-min Rain = 0
KWT1 131434Z 09005KT 04/M03 A3033 RMK A01 T00371032  RH  061%=      5-min Rain = 0
KWT1 131435Z 09005KT 04/M03 A3033 RMK A01 T00381031  RH  061%=      5-min Rain = 0
KWT1 131436Z 09006KT 04/M03 A3033 RMK A01 T00381031  RH  061%=      5-min Rain = 0
KWT1 131437Z 10006KT 04/M03 A3033 RMK A01 T00391031  RH  061%=      5-min Rain = 0
KWT1 131438Z 10005KT 04/M03 A3033 RMK A01 T00391031  RH  061%=      5-min Rain = 0
KWT1 131439Z 10006KT 04/M03 A3033 RMK A01 T00401030  RH  061%=      5-min Rain = 0
KWT1 131440Z 11005KT 04/M03 A3033 RMK A01 T00401029  RH  060%=      5-min Rain = 0
KWT1 131441Z 11007KT 04/M03 A3033 RMK A01 T00411029  RH  060%=      5-min Rain = 0
KWT1 131442Z 10007KT 04/M03 A3033 RMK A01 T00421029  RH  060%=      5-min Rain = 0
KWT1 131443Z 10007KT 04/M03 A3033 RMK A01 T00421028  RH  060%=      5-min Rain = 0
KWT1 131444Z 11008KT 04/M03 A3033 RMK A01 T00421028  RH  060%=      5-min Rain = 0
KWT1 131445Z 11007KT 04/M03 A3033 RMK A01 T00421028  RH  060%=      5-min Rain = 0
KWT1 131446Z 12007KT 04/M03 A3034 RMK A01 T00421028  RH  060%=      5-min Rain = 0
KWT1 131447Z 11006KT 04/M03 A3034 RMK A01 T00431028  RH  060%=      5-min Rain = 0
KWT1 131448Z 11006KT 04/M03 A3034 RMK A01 T00431028  RH  060%=      5-min Rain = 0
KWT1 131449Z 12007KT 04/M03 A3033 RMK A01 T00431028  RH  060%=      5-min Rain = 0
KWT1 131450Z 12007KT 04/M03 A3034 RMK A01 T00431027  RH  060%=      5-min Rain = 0
KWT1 131451Z 11007KT 04/M03 A3034 RMK A01 T00441027  RH  060%=      5-min Rain = 0
KWT1 131452Z 11007KT 04/M03 A3034 RMK A01 T00441027  RH  060%=      5-min Rain = 0
KWT1 131453Z 12007KT 05/M03 A3034 RMK A01 T00451027  RH  060%=      5-min Rain = 0
KWT1 131454Z 11007KT 05/M03 A3034 RMK A01 T00451026  RH  060%=      5-min Rain = 0
KWT1 131455Z 11007KT 05/M03 A3034 RMK A01 T00461025  RH  060%=      5-min Rain = 0
KWT1 131456Z 12007KT 05/M03 A3034 RMK A01 T00471025  RH  060%=      5-min Rain = 0
KWT1 131457Z 12007KT 05/M03 A3034 RMK A01 T00471025  RH  059%=      5-min Rain = 0
KWT1 131458Z 11008KT 05/M03 A3034 RMK A01 T00471025  RH  059%=      5-min Rain = 0
KWT1 131459Z 11008KT 05/M02 A3034 RMK A01 T00481024  RH  060%=      5-min Rain = 0
KWT1 131500Z 11007KT 05/M02 A3034 RMK A01 T00481024  RH  060%=      5-min Rain = 0
KWT1 131501Z 11006KT 05/M02 A3034 RMK A01 T00481024  RH  059%=      5-min Rain = 0
KWT1 131502Z 11007KT 05/M02 A3034 RMK A01 T00481024  RH  060%=      5-min Rain = 0
KWT1 131503Z 11007KT 05/M02 A3035 RMK A01 T00491023  RH  060%=      5-min Rain = 0
KWT1 131504Z 11006KT 05/M02 A3035 RMK A01 T00491023  RH  060%=      5-min Rain = 0
KWT1 131505Z 11006KT 05/M02 A3034 RMK A01 T00501022  RH  060%=      5-min Rain = 0
KWT1 131506Z 11007KT 05/M02 A3034 RMK A01 T00511021  RH  060%=      5-min Rain = 0
KWT1 131507Z 13005KT 05/M02 A3034 RMK A01 T00511021  RH  059%=      5-min Rain = 0
KWT1 131508Z 11006KT 05/M02 A3035 RMK A01 T00521021  RH  059%=      5-min Rain = 0
KWT1 131509Z 12006KT 05/M02 A3035 RMK A01 T00531019  RH  060%=      5-min Rain = 0
KWT1 131510Z 13006KT 05/M02 A3035 RMK A01 T00541019  RH  060%=      5-min Rain = 0
KWT1 131511Z 12008KT 05/M02 A3035 RMK A01 T00541017  RH  060%=      5-min Rain = 0
KWT1 131512Z 12008KT 05/M02 A3035 RMK A01 T00541016  RH  061%=      5-min Rain = 0
KWT1 131513Z 11007KT 05/M01 A3035 RMK A01 T00541014  RH  061%=      5-min Rain = 0
KWT1 131514Z 12005KT 05/M01 A3035 RMK A01 T00541014  RH  061%=      5-min Rain = 0
KWT1 131515Z 12005KT 06/M01 A3035 RMK A01 T00551013  RH  061%=      5-min Rain = 0
KWT1 131516Z 11007KT 06/M01 A3035 RMK A01 T00561013  RH  061%=      5-min Rain = 0
KWT1 131517Z 12006KT 06/M01 A3035 RMK A01 T00561012  RH  061%=      5-min Rain = 0
KWT1 131518Z 12006KT 06/M01 A3035 RMK A01 T00571011  RH  061%=      5-min Rain = 0
KWT1 131519Z 12006KT 06/M01 A3034 RMK A01 T00571010  RH  062%=      5-min Rain = 0
KWT1 131520Z 13006KT 06/M01 A3034 RMK A01 T00581008  RH  063%=      5-min Rain = 0
KWT1 131521Z 13005KT 06/M01 A3035 RMK A01 T00571007  RH  063%=      5-min Rain = 0
KWT1 131522Z 13006KT 06/M01 A3035 RMK A01 T00581008  RH  063%=      5-min Rain = 0
KWT1 131523Z 13007KT 06/M01 A3035 RMK A01 T00591007  RH  063%=      5-min Rain = 0
KWT1 131524Z 14006KT 06/M01 A3035 RMK A01 T00591005  RH  063%=      5-min Rain = 0
KWT1 131525Z 14006KT 06/M00 A3035 RMK A01 T00591003  RH  064%=      5-min Rain = 0
KWT1 131526Z 14006KT 06/M00 A3035 RMK A01 T00601002  RH  064%=      5-min Rain = 0
KWT1 131527Z 13005KT 06/M00 A3035 RMK A01 T00601003  RH  064%=      5-min Rain = 0
KWT1 131528Z 14007KT 06/M00 A3035 RMK A01 T00601003  RH  064%=      5-min Rain = 0
KWT1 131529Z 13007KT 06/M00 A3035 RMK A01 T00601002  RH  064%=      5-min Rain = 0
KWT1 131530Z 13007KT 06/M00 A3035 RMK A01 T00601002  RH  064%=      5-min Rain = 0
KWT1 131531Z 14007KT 06/M00 A3035 RMK A01 T00601002  RH  064%=      5-min Rain = 0
KWT1 131532Z 14008KT 06/M00 A3035 RMK A01 T00611002  RH  064%=      5-min Rain = 0
KWT1 131533Z 14007KT 06/M00 A3035 RMK A01 T00601002  RH  065%=      5-min Rain = 0
KWT1 131534Z 14006KT 06/M00 A3035 RMK A01 T00601002  RH  065%=      5-min Rain = 0
KWT1 131535Z 12008KT 06/M00 A3035 RMK A01 T00601002  RH  065%=      5-min Rain = 0
KWT1 131536Z 13009KT 06/M00 A3035 RMK A01 T00601002  RH  065%=      5-min Rain = 0
KWT1 131537Z 13009KT 06/M00 A3035 RMK A01 T00601001  RH  065%=      5-min Rain = 0
KWT1 131538Z 14007KT 06/00 A3035 RMK A01 T00600001  RH  066%=      5-min Rain = 0
KWT1 131539Z 14008KT 06/00 A3035 RMK A01 T00610002  RH  066%=      5-min Rain = 0
KWT1 131540Z 15008KT 06/00 A3035 RMK A01 T00620003  RH  066%=      5-min Rain = 0
KWT1 131541Z 15009KT 06/00 A3035 RMK A01 T00630004  RH  066%=      5-min Rain = 0
KWT1 131542Z 14007KT 06/00 A3035 RMK A01 T00630003  RH  066%=      5-min Rain = 0
KWT1 131543Z 14009KT 06/00 A3035 RMK A01 T00640004  RH  065%=      5-min Rain = 0
KWT1 131544Z 14008KT 06/00 A3035 RMK A01 T00640004  RH  065%=      5-min Rain = 0
KWT1 131545Z 13007KT 07/01 A3035 RMK A01 T00660005  RH  065%=      5-min Rain = 0
KWT1 131546Z 15009KT 07/01 A3035 RMK A01 T00670005  RH  064%=      5-min Rain = 0
KWT1 131547Z 14008KT 07/00 A3035 RMK A01 T00680004  RH  064%=      5-min Rain = 0
KWT1 131548Z 14008KT 07/01 A3035 RMK A01 T00680005  RH  064%=      5-min Rain = 0
KWT1 131549Z 14008KT 07/01 A3035 RMK A01 T00670005  RH  064%=      5-min Rain = 0
KWT1 131550Z 14009KT 07/01 A3035 RMK A01 T00680005  RH  064%=      5-min Rain = 0
KWT1 131551Z 14009KT 07/01 A3035 RMK A01 T00670006  RH  065%=      5-min Rain = 0
KWT1 131552Z 15008KT 07/01 A3035 RMK A01 T00670007  RH  066%=      5-min Rain = 0
KWT1 131553Z 15010KT 07/01 A3035 RMK A01 T00670007  RH  066%=      5-min Rain = 0
KWT1 131554Z 16009KT 07/01 A3035 RMK A01 T00660006  RH  066%=      5-min Rain = 0
KWT1 131555Z 16008KT 07/01 A3035 RMK A01 T00650006  RH  066%=      5-min Rain = 0
KWT1 131556Z 17007KT 06/01 A3035 RMK A01 T00640006  RH  067%=      5-min Rain = 0
KWT1 131557Z 15006KT 06/01 A3036 RMK A01 T00630006  RH  067%=      5-min Rain = 0
KWT1 131558Z 14007KT 06/01 A3036 RMK A01 T00630006  RH  066%=      5-min Rain = 0
KWT1 131559Z 15009KT 06/01 A3036 RMK A01 T00640006  RH  066%=      5-min Rain = 0
KWT1 131600Z 14008KT 07/01 A3036 RMK A01 T00650006  RH  066%=      5-min Rain = 0
KWT1 131601Z 14007KT 06/01 A3036 RMK A01 T00640006  RH  067%=      5-min Rain = 0
KWT1 131602Z 16008KT 06/01 A3036 RMK A01 T00640007  RH  067%=      5-min Rain = 0
KWT1 131603Z 15010KT 06/01 A3036 RMK A01 T00640009  RH  068%=      5-min Rain = 0
KWT1 131604Z 16011KT 06/01 A3036 RMK A01 T00640013  RH  070%=      5-min Rain = 0
KWT1 131605Z 16010KT 06/02 A3036 RMK A01 T00640015  RH  071%=      5-min Rain = 0
KWT1 131606Z 16010KT 06/02 A3036 RMK A01 T00640016  RH  072%=      5-min Rain = 0
KWT1 131607Z 16010KT 06/02 A3036 RMK A01 T00630016  RH  072%=      5-min Rain = 0
KWT1 131608Z 16010KT 06/02 A3036 RMK A01 T00640016  RH  072%=      5-min Rain = 0
KWT1 131609Z 16010KT 06/02 A3036 RMK A01 T00640016  RH  072%=      5-min Rain = 0
KWT1 131610Z 16009KT 06/02 A3036 RMK A01 T00640016  RH  071%=      5-min Rain = 0
KWT1 131611Z 16009KT 06/02 A3036 RMK A01 T00640016  RH  071%=      5-min Rain = 0
KWT1 131612Z 16006KT 07/02 A3036 RMK A01 T00660016  RH  070%=      5-min Rain = 0
KWT1 131613Z 15008KT 07/01 A3036 RMK A01 T00670013  RH  068%=      5-min Rain = 0
KWT1 131614Z 14007KT 07/01 A3036 RMK A01 T00680007  RH  065%=      5-min Rain = 0
KWT1 131615Z 13007KT 07/00 A3035 RMK A01 T00680004  RH  064%=      5-min Rain = 0
KWT1 131616Z 13008KT 07/00 A3035 RMK A01 T00680003  RH  063%=      5-min Rain = 0
KWT1 131617Z 14008KT 07/00 A3035 RMK A01 T00690003  RH  063%=      5-min Rain = 0
KWT1 131618Z 13007KT 07/00 A3035 RMK A01 T00700004  RH  063%=      5-min Rain = 0
KWT1 131619Z 14008KT 07/01 A3035 RMK A01 T00730005  RH  062%=      5-min Rain = 0
KWT1 131620Z 13009KT 07/00 A3035 RMK A01 T00720004  RH  062%=      5-min Rain = 0
KWT1 131621Z 14009KT 07/00 A3035 RMK A01 T00730004  RH  062%=      5-min Rain = 0
KWT1 131622Z 14008KT 07/00 A3035 RMK A01 T00720004  RH  062%=      5-min Rain = 0
KWT1 131623Z 13009KT 07/00 A3035 RMK A01 T00720003  RH  062%=      5-min Rain = 0
KWT1 131624Z 13008KT 07/00 A3035 RMK A01 T00710002  RH  062%=      5-min Rain = 0
KWT1 131625Z 13008KT 07/00 A3035 RMK A01 T00720003  RH  062%=      5-min Rain = 0
KWT1 131626Z 14008KT 07/00 A3035 RMK A01 T00720003  RH  061%=      5-min Rain = 0
KWT1 131627Z 13008KT 07/00 A3035 RMK A01 T00730004  RH  062%=      5-min Rain = 0
KWT1 131628Z 13008KT 07/00 A3035 RMK A01 T00730004  RH  061%=      5-min Rain = 0
KWT1 131629Z 13010KT 07/01 A3034 RMK A01 T00740005  RH  061%=      5-min Rain = 0
KWT1 131630Z 14010KT 08/01 A3034 RMK A01 T00750008  RH  063%=      5-min Rain = 0
KWT1 131631Z 14010KT 08/01 A3034 RMK A01 T00760010  RH  063%=      5-min Rain = 0
KWT1 131632Z 14011KT 08/01 A3034 RMK A01 T00770010  RH  062%=      5-min Rain = 0
KWT1 131633Z 15010KT 08/01 A3034 RMK A01 T00780011  RH  062%=      5-min Rain = 0
KWT1 131634Z 14010KT 08/01 A3034 RMK A01 T00790009  RH  061%=      5-min Rain = 0
KWT1 131635Z 13009KT 08/01 A3034 RMK A01 T00780007  RH  061%=      5-min Rain = 0
KWT1 131636Z 14009KT 08/01 A3034 RMK A01 T00760005  RH  061%=      5-min Rain = 0
KWT1 131637Z 13009KT 08/01 A3034 RMK A01 T00760006  RH  061%=      5-min Rain = 0
KWT1 131638Z 15009KT 08/01 A3034 RMK A01 T00780011  RH  063%=      5-min Rain = 0
KWT1 131639Z 14009KT 08/01 A3034 RMK A01 T00800013  RH  063%=      5-min Rain = 0
KWT1 131640Z 14009KT 08/01 A3034 RMK A01 T00810013  RH  062%=      5-min Rain = 0
KWT1 131641Z 15008KT 08/02 A3034 RMK A01 T00830016  RH  063%=      5-min Rain = 0
KWT1 131642Z 15009KT 08/02 A3034 RMK A01 T00840019  RH  063%=      5-min Rain = 0
KWT1 131643Z 14007KT 09/02 A3034 RMK A01 T00850019  RH  063%=      5-min Rain = 0
KWT1 131644Z 14009KT 09/02 A3034 RMK A01 T00860017  RH  062%=      5-min Rain = 0
KWT1 131645Z 14009KT 09/02 A3034 RMK A01 T00870016  RH  061%=      5-min Rain = 0
KWT1 131646Z 14010KT 09/02 A3034 RMK A01 T00850020  RH  063%=      5-min Rain = 0
KWT1 131647Z 13008KT 08/02 A3034 RMK A01 T00840021  RH  065%=      5-min Rain = 0
KWT1 131648Z 13008KT 09/02 A3034 RMK A01 T00850022  RH  065%=      5-min Rain = 0
KWT1 131649Z 16009KT 09/02 A3034 RMK A01 T00870022  RH  064%=      5-min Rain = 0
KWT1 131650Z 14010KT 09/02 A3034 RMK A01 T00860022  RH  064%=      5-min Rain = 0
KWT1 131651Z 14010KT 09/02 A3034 RMK A01 T00870024  RH  064%=      5-min Rain = 0
KWT1 131652Z 14009KT 09/02 A3034 RMK A01 T00870024  RH  065%=      5-min Rain = 0
KWT1 131653Z 15011KT 09/03 A3034 RMK A01 T00890026  RH  065%=      5-min Rain = 0
KWT1 131654Z 16009KT 09/03 A3034 RMK A01 T00880025  RH  065%=      5-min Rain = 0
KWT1 131655Z 16008KT 09/03 A3034 RMK A01 T00860025  RH  065%=      5-min Rain = 0
KWT1 131656Z 15010KT 09/03 A3034 RMK A01 T00870026  RH  065%=      5-min Rain = 0
KWT1 131657Z 15009KT 09/03 A3034 RMK A01 T00890025  RH  065%=      5-min Rain = 0
KWT1 131658Z 15010KT 09/03 A3034 RMK A01 T00890026  RH  065%=      5-min Rain = 0
KWT1 131659Z 15010KT 09/03 A3034 RMK A01 T00880026  RH  065%=      5-min Rain = 0
KWT1 131700Z 14009KT 09/03 A3034 RMK A01 T00870025  RH  065%=      5-min Rain = 0
KWT1 131701Z 16007KT 09/03 A3034 RMK A01 T00870025  RH  065%=      5-min Rain = 0
KWT1 131702Z 14010KT 09/03 A3035 RMK A01 T00880025  RH  065%=      5-min Rain = 0
KWT1 131703Z 14007KT 09/03 A3035 RMK A01 T00890025  RH  064%=      5-min Rain = 0
KWT1 131704Z 16010KT 09/03 A3035 RMK A01 T00870025  RH  065%=      5-min Rain = 0
KWT1 131705Z 16009KT 09/03 A3035 RMK A01 T00870026  RH  065%=      5-min Rain = 0
KWT1 131706Z 15009KT 09/03 A3035 RMK A01 T00870025  RH  065%=      5-min Rain = 0
KWT1 131707Z 16011KT 09/03 A3035 RMK A01 T00870025  RH  065%=      5-min Rain = 0
KWT1 131708Z 15008KT 09/03 A3035 RMK A01 T00870025  RH  065%=      5-min Rain = 0
KWT1 131709Z 16008KT 09/03 A3035 RMK A01 T00870026  RH  065%=      5-min Rain = 0
KWT1 131710Z 16012KT 09/03 A3034 RMK A01 T00890027  RH  065%=      5-min Rain = 0
KWT1 131711Z 16008KT 09/03 A3034 RMK A01 T00890027  RH  065%=      5-min Rain = 0
KWT1 131712Z 17011KT 09/03 A3034 RMK A01 T00890028  RH  065%=      5-min Rain = 0
KWT1 131713Z 16011KT 09/03 A3034 RMK A01 T00880029  RH  067%=      5-min Rain = 0
KWT1 131714Z 15009KT 09/03 A3034 RMK A01 T00880029  RH  067%=      5-min Rain = 0
KWT1 131715Z 16010KT 09/03 A3034 RMK A01 T00880028  RH  066%=      5-min Rain = 0
KWT1 131716Z 17009KT 09/03 A3034 RMK A01 T00890027  RH  065%=      5-min Rain = 0
KWT1 131717Z 16010KT 09/03 A3035 RMK A01 T00900027  RH  065%=      5-min Rain = 0
KWT1 131718Z 16011KT 09/03 A3035 RMK A01 T00920027  RH  064%=      5-min Rain = 0
KWT1 131719Z 16011KT 09/03 A3035 RMK A01 T00910026  RH  064%=      5-min Rain = 0
KWT1 131720Z 17010KT 09/03 A3035 RMK A01 T00910026  RH  064%=      5-min Rain = 0
KWT1 131721Z 17008KT 09/03 A3035 RMK A01 T00910026  RH  064%=      5-min Rain = 0
KWT1 131722Z 16007KT 09/03 A3035 RMK A01 T00910026  RH  064%=      5-min Rain = 0
KWT1 131723Z 17008KT 09/03 A3035 RMK A01 T00920026  RH  064%=      5-min Rain = 0
KWT1 131724Z 18006KT 09/03 A3035 RMK A01 T00920025  RH  063%=      5-min Rain = 0
KWT1 131725Z 18008KT 09/03 A3035 RMK A01 T00920025  RH  063%=      5-min Rain = 0
KWT1 131726Z 17008KT 09/03 A3035 RMK A01 T00930026  RH  063%=      5-min Rain = 0
KWT1 131727Z 17007KT 09/03 A3035 RMK A01 T00930026  RH  063%=      5-min Rain = 0
KWT1 131728Z 18008KT 09/03 A3035 RMK A01 T00930026  RH  063%=      5-min Rain = 0
KWT1 131729Z 17006KT 09/03 A3035 RMK A01 T00930026  RH  063%=      5-min Rain = 0
KWT1 131730Z 17007KT 09/03 A3035 RMK A01 T00930026  RH  063%=      5-min Rain = 0
KWT1 131731Z 19008KT 10/03 A3035 RMK A01 T00950027  RH  063%=      5-min Rain = 0
KWT1 131732Z 19008KT 09/03 A3035 RMK A01 T00940025  RH  062%=      5-min Rain = 0
KWT1 131733Z 19008KT 09/03 A3035 RMK A01 T00930025  RH  062%=      5-min Rain = 0
KWT1 131734Z 17010KT 09/03 A3035 RMK A01 T00930025  RH  062%=      5-min Rain = 0
KWT1 131735Z 17011KT 09/03 A3035 RMK A01 T00940026  RH  063%=      5-min Rain = 0
KWT1 131736Z 18009KT 09/03 A3035 RMK A01 T00930026  RH  063%=      5-min Rain = 0
KWT1 131737Z 17009KT 09/03 A3035 RMK A01 T00930027  RH  063%=      5-min Rain = 0
KWT1 131738Z 17009KT 09/03 A3035 RMK A01 T00930026  RH  063%=      5-min Rain = 0
KWT1 131739Z 18009KT 09/03 A3035 RMK A01 T00920025  RH  063%=      5-min Rain = 0
KWT1 131740Z 19007KT 09/03 A3035 RMK A01 T00910026  RH  064%=      5-min Rain = 0
KWT1 131741Z 20008KT 09/03 A3035 RMK A01 T00920026  RH  063%=      5-min Rain = 0
KWT1 131742Z 19007KT 09/03 A3036 RMK A01 T00920025  RH  063%=      5-min Rain = 0
KWT1 131743Z 17009KT 09/03 A3036 RMK A01 T00920025  RH  063%=      5-min Rain = 0
KWT1 131744Z 18010KT 09/03 A3036 RMK A01 T00920025  RH  063%=      5-min Rain = 0
KWT1 131745Z 18008KT 09/03 A3036 RMK A01 T00910025  RH  063%=      5-min Rain = 0
KWT1 131746Z 17011KT 09/03 A3036 RMK A01 T00910025  RH  063%=      5-min Rain = 0
KWT1 131747Z 17011KT 09/03 A3036 RMK A01 T00910025  RH  063%=      5-min Rain = 0
KWT1 131748Z 18008KT 09/03 A3036 RMK A01 T00910025  RH  063%=      5-min Rain = 0
KWT1 131749Z 18007KT 09/03 A3036 RMK A01 T00920025  RH  063%=      5-min Rain = 0
KWT1 131750Z 19008KT 09/02 A3036 RMK A01 T00930024  RH  062%=      5-min Rain = 0
KWT1 131751Z 18009KT 09/02 A3035 RMK A01 T00930024  RH  062%=      5-min Rain = 0
KWT1 131752Z 18006KT 09/02 A3035 RMK A01 T00920024  RH  062%=      5-min Rain = 0
KWT1 131753Z 19007KT 09/03 A3035 RMK A01 T00940025  RH  062%=      5-min Rain = 0
KWT1 131754Z 19007KT 10/03 A3035 RMK A01 T00950025  RH  061%=      5-min Rain = 0
KWT1 131755Z 17008KT 10/03 A3035 RMK A01 T00960025  RH  061%=      5-min Rain = 0
KWT1 131756Z 18008KT 10/03 A3035 RMK A01 T00960026  RH  061%=      5-min Rain = 0
KWT1 131757Z 18008KT 10/03 A3035 RMK A01 T00980026  RH  061%=      5-min Rain = 0
KWT1 131758Z 18007KT 10/03 A3035 RMK A01 T00980026  RH  061%=      5-min Rain = 0
KWT1 131759Z 19008KT 10/03 A3035 RMK A01 T00990026  RH  061%=      5-min Rain = 0
KWT1 131800Z 20007KT 10/02 A3035 RMK A01 T00980024  RH  060%=      5-min Rain = 0
KWT1 131801Z 19009KT 10/03 A3035 RMK A01 T00980025  RH  060%=      5-min Rain = 0
KWT1 131802Z 19010KT 10/03 A3035 RMK A01 T00970026  RH  061%=      5-min Rain = 0
KWT1 131803Z 19008KT 10/03 A3035 RMK A01 T00960026  RH  062%=      5-min Rain = 0
KWT1 131804Z 19009KT 10/03 A3035 RMK A01 T00960027  RH  062%=      5-min Rain = 0
KWT1 131805Z 20010KT 10/03 A3035 RMK A01 T00980028  RH  062%=      5-min Rain = 0
KWT1 131806Z 20009KT 10/03 A3035 RMK A01 T00990030  RH  063%=      5-min Rain = 0
KWT1 131807Z 20011KT 10/03 A3034 RMK A01 T01020033  RH  062%=      5-min Rain = 0
KWT1 131808Z 19011KT 10/03 A3034 RMK A01 T01030032  RH  062%=      5-min Rain = 0
KWT1 131809Z 20008KT 10/03 A3034 RMK A01 T01030033  RH  062%=      5-min Rain = 0
KWT1 131810Z 19007KT 11/03 A3034 RMK A01 T01050033  RH  061%=      5-min Rain = 0
KWT1 131811Z 18008KT 11/03 A3034 RMK A01 T01060033  RH  060%=      5-min Rain = 0
KWT1 131812Z 18012KT 11/03 A3034 RMK A01 T01080034  RH  060%=      5-min Rain = 0
KWT1 131813Z 19011KT 11/03 A3034 RMK A01 T01060032  RH  060%=      5-min Rain = 0
KWT1 131814Z 19009KT 11/03 A3033 RMK A01 T01050032  RH  061%=      5-min Rain = 0
KWT1 131815Z 18012KT 10/03 A3033 RMK A01 T01040032  RH  061%=      5-min Rain = 0
KWT1 131816Z 19010KT 10/03 A3033 RMK A01 T01030032  RH  061%=      5-min Rain = 0
KWT1 131817Z 18011KT 10/03 A3033 RMK A01 T01040033  RH  061%=      5-min Rain = 0
KWT1 131818Z 17011KT 11/04 A3033 RMK A01 T01070036  RH  061%=      5-min Rain = 0
KWT1 131819Z 18010KT 11/04 A3033 RMK A01 T01090036  RH  061%=      5-min Rain = 0
KWT1 131820Z 19010G16KT 11/04 A3033 RMK A01 T01130038  RH  060%=      5-min Rain = 0
KWT1 131821Z 19012KT 12/04 A3033 RMK A01 T01180040  RH  059%=      5-min Rain = 0
KWT1 131822Z 18011KT 12/04 A3033 RMK A01 T01170038  RH  059%=      5-min Rain = 0
KWT1 131823Z 18013G19KT 12/04 A3033 RMK A01 T01170038  RH  058%=      5-min Rain = 0
KWT1 131824Z 19011KT 12/04 A3033 RMK A01 T01170037  RH  058%=      5-min Rain = 0
KWT1 131825Z 19011KT 12/04 A3032 RMK A01 T01180037  RH  058%=      5-min Rain = 0
KWT1 131826Z 17008KT 12/04 A3032 RMK A01 T01180036  RH  057%=      5-min Rain = 0
KWT1 131827Z 17010KT 12/04 A3032 RMK A01 T01190037  RH  057%=      5-min Rain = 0
KWT1 131828Z 19011KT 12/04 A3032 RMK A01 T01210038  RH  057%=      5-min Rain = 0
KWT1 131829Z 18014KT 12/04 A3032 RMK A01 T01220038  RH  057%=      5-min Rain = 0
KWT1 131830Z 19013KT 12/04 A3032 RMK A01 T01200037  RH  057%=      5-min Rain = 0
KWT1 131831Z 19012KT 12/04 A3032 RMK A01 T01170037  RH  058%=      5-min Rain = 0
KWT1 131832Z 18010KT 12/04 A3032 RMK A01 T01160037  RH  059%=      5-min Rain = 0
KWT1 131833Z 18010KT 12/04 A3032 RMK A01 T01170038  RH  059%=      5-min Rain = 0
KWT1 131834Z 18011KT 12/04 A3032 RMK A01 T01180039  RH  058%=      5-min Rain = 0
KWT1 131835Z 18012KT 12/04 A3032 RMK A01 T01190038  RH  058%=      5-min Rain = 0
KWT1 131836Z 18009KT 12/04 A3032 RMK A01 T01190038  RH  058%=      5-min Rain = 0
KWT1 131837Z 19009KT 12/04 A3032 RMK A01 T01200038  RH  057%=      5-min Rain = 0
KWT1 131838Z 18011KT 12/04 A3032 RMK A01 T01190038  RH  058%=      5-min Rain = 0
KWT1 131839Z 17011KT 12/04 A3032 RMK A01 T01200040  RH  058%=      5-min Rain = 0
KWT1 131840Z 17010KT 12/04 A3032 RMK A01 T01190039  RH  058%=      5-min Rain = 0
KWT1 131841Z 18010KT 12/04 A3032 RMK A01 T01200039  RH  058%=      5-min Rain = 0
KWT1 131842Z 18009G15KT 12/04 A3032 RMK A01 T01190039  RH  058%=      5-min Rain = 0
KWT1 131843Z 18012KT 12/04 A3032 RMK A01 T01210040  RH  058%=      5-min Rain = 0
KWT1 131844Z 19009KT 12/04 A3032 RMK A01 T01210039  RH  057%=      5-min Rain = 0
KWT1 131845Z 20009KT 12/04 A3032 RMK A01 T01230041  RH  057%=      5-min Rain = 0
KWT1 131846Z 20010KT 12/04 A3032 RMK A01 T01200038  RH  057%=      5-min Rain = 0
KWT1 131847Z 19009KT 12/04 A3032 RMK A01 T01190038  RH  058%=      5-min Rain = 0
KWT1 131848Z 19010G15KT 12/04 A3031 RMK A01 T01210040  RH  058%=      5-min Rain = 0
KWT1 131849Z 18012KT 12/04 A3031 RMK A01 T01220039  RH  057%=      5-min Rain = 0
KWT1 131850Z 18011KT 12/04 A3031 RMK A01 T01200039  RH  057%=      5-min Rain = 0
KWT1 131851Z 18010KT 12/04 A3031 RMK A01 T01210039  RH  057%=      5-min Rain = 0
KWT1 131852Z 19010KT 12/04 A3031 RMK A01 T01210040  RH  057%=      5-min Rain = 0
KWT1 131853Z 18010KT 12/04 A3031 RMK A01 T01210039  RH  057%=      5-min Rain = 0
KWT1 131854Z 17010KT 12/04 A3031 RMK A01 T01200039  RH  057%=      5-min Rain = 0
KWT1 131855Z 18010KT 12/04 A3031 RMK A01 T01210039  RH  057%=      5-min Rain = 0
KWT1 131856Z 17009KT 12/04 A3031 RMK A01 T01230039  RH  057%=      5-min Rain = 0
KWT1 131857Z 18010KT 12/04 A3031 RMK A01 T01240039  RH  056%=      5-min Rain = 0
KWT1 131858Z 18010KT 12/04 A3031 RMK A01 T01240038  RH  056%=      5-min Rain = 0
KWT1 131859Z 18009KT 12/04 A3031 RMK A01 T01220037  RH  056%=      5-min Rain = 0
KWT1 131900Z 18011KT 13/04 A3031 RMK A01 T01260040  RH  056%=      5-min Rain = 0
KWT1 131901Z 20010KT 13/04 A3031 RMK A01 T01270039  RH  055%=      5-min Rain = 0
KWT1 131902Z 20010KT 13/04 A3031 RMK A01 T01270039  RH  055%=      5-min Rain = 0
KWT1 131903Z 20011KT 13/04 A3031 RMK A01 T01250039  RH  055%=      5-min Rain = 0
KWT1 131904Z 19011KT 13/04 A3031 RMK A01 T01270039  RH  055%=      5-min Rain = 0
KWT1 131905Z 19009KT 13/04 A3031 RMK A01 T01270038  RH  055%=      5-min Rain = 0
KWT1 131906Z 18006KT 13/04 A3031 RMK A01 T01270037  RH  054%=      5-min Rain = 0
KWT1 131907Z 18008KT 13/04 A3031 RMK A01 T01280038  RH  055%=      5-min Rain = 0
KWT1 131908Z 17010KT 13/04 A3031 RMK A01 T01290037  RH  054%=      5-min Rain = 0
KWT1 131909Z 16008KT 13/04 A3031 RMK A01 T01280036  RH  053%=      5-min Rain = 0
KWT1 131910Z 17008KT 13/03 A3031 RMK A01 T01270034  RH  053%=      5-min Rain = 0
KWT1 131911Z 19009KT 13/04 A303 RMK A01 T01250035  RH  054%=      5-min Rain = 0
KWT1 131912Z 19006KT 13/04 A303 RMK A01 T01250035  RH  054%=      5-min Rain = 0
KWT1 131913Z 16009G14KT 13/04 A303 RMK A01 T01260037  RH  055%=      5-min Rain = 0
KWT1 131914Z 18011KT 13/04 A303 RMK A01 T01290040  RH  055%=      5-min Rain = 0
KWT1 131915Z 19010KT 13/04 A303 RMK A01 T01310040  RH  054%=      5-min Rain = 0
KWT1 131916Z 18009KT 13/04 A303 RMK A01 T01310037  RH  053%=      5-min Rain = 0
KWT1 131917Z 16009KT 13/04 A303 RMK A01 T01300038  RH  054%=      5-min Rain = 0
KWT1 131918Z 18011G16KT 13/04 A3029 RMK A01 T01330041  RH  054%=      5-min Rain = 0
KWT1 131919Z 19012KT 13/04 A3029 RMK A01 T01320039  RH  053%=      5-min Rain = 0
KWT1 131920Z 18012KT 13/04 A3029 RMK A01 T01300038  RH  054%=      5-min Rain = 0
KWT1 131921Z 19011KT 13/04 A3029 RMK A01 T01290038  RH  054%=      5-min Rain = 0
KWT1 131922Z 19008KT 13/04 A303 RMK A01 T01270038  RH  054%=      5-min Rain = 0
KWT1 131923Z 19010KT 13/04 A3029 RMK A01 T01260037  RH  055%=      5-min Rain = 0
KWT1 131924Z 19010KT 13/04 A303 RMK A01 T01270037  RH  054%=      5-min Rain = 0
KWT1 131925Z 19012KT 13/04 A303 RMK A01 T01260037  RH  055%=      5-min Rain = 0
KWT1 131926Z 19008KT 13/04 A303 RMK A01 T01270038  RH  055%=      5-min Rain = 0
KWT1 131927Z 18007KT 13/04 A303 RMK A01 T01290040  RH  055%=      5-min Rain = 0
KWT1 131928Z 19008KT 13/04 A3029 RMK A01 T01310040  RH  054%=      5-min Rain = 0
KWT1 131929Z 16011KT 13/04 A3029 RMK A01 T01340041  RH  053%=      5-min Rain = 0
KWT1 131930Z 18012KT 14/04 A3029 RMK A01 T01350041  RH  053%=      5-min Rain = 0
KWT1 131931Z 19011KT 14/04 A3029 RMK A01 T01350040  RH  053%=      5-min Rain = 0
KWT1 131932Z 19012KT 14/04 A3029 RMK A01 T01350041  RH  053%=      5-min Rain = 0
KWT1 131933Z 19009KT 14/04 A3029 RMK A01 T01350041  RH  053%=      5-min Rain = 0
KWT1 131934Z 17007KT 14/04 A3029 RMK A01 T01370041  RH  052%=      5-min Rain = 0
KWT1 131935Z 16009KT 14/04 A3029 RMK A01 T01390040  RH  051%=      5-min Rain = 0
KWT1 131936Z 18009KT 14/04 A3029 RMK A01 T01380040  RH  052%=      5-min Rain = 0
KWT1 131937Z 18008KT 14/04 A3029 RMK A01 T01360040  RH  052%=      5-min Rain = 0
KWT1 131938Z 18006KT 14/04 A3029 RMK A01 T01350039  RH  052%=      5-min Rain = 0
KWT1 131939Z 16007KT 13/04 A3029 RMK A01 T01340039  RH  053%=      5-min Rain = 0
KWT1 131940Z 18008KT 14/04 A3029 RMK A01 T01350039  RH  052%=      5-min Rain = 0
KWT1 131941Z 16005KT 13/04 A3029 RMK A01 T01340038  RH  052%=      5-min Rain = 0
KWT1 131942Z 19007KT 13/04 A3029 RMK A01 T01340039  RH  053%=      5-min Rain = 0
KWT1 131943Z 19006KT 13/04 A3029 RMK A01 T01340038  RH  052%=      5-min Rain = 0
KWT1 131944Z 17009KT 14/04 A3029 RMK A01 T01360041  RH  052%=      5-min Rain = 0
KWT1 131945Z 18007KT 14/04 A3029 RMK A01 T01380041  RH  052%=      5-min Rain = 0
KWT1 131946Z 19009KT 14/04 A3029 RMK A01 T01390041  RH  052%=      5-min Rain = 0
KWT1 131947Z 19008KT 14/04 A3029 RMK A01 T01400041  RH  051%=      5-min Rain = 0
KWT1 131948Z 18006KT 14/04 A3029 RMK A01 T01370040  RH  052%=      5-min Rain = 0
KWT1 131949Z 18003KT 14/04 A3029 RMK A01 T01370040  RH  052%=      5-min Rain = 0
KWT1 131950Z 18006KT 14/04 A3028 RMK A01 T01380042  RH  052%=      5-min Rain = 0
KWT1 131951Z 18009KT 14/04 A3028 RMK A01 T01430044  RH  051%=      5-min Rain = 0
KWT1 131952Z 17009G14KT 14/04 A3028 RMK A01 T01430043  RH  051%=      5-min Rain = 0
KWT1 131953Z 17010KT 14/04 A3028 RMK A01 T01430042  RH  051%=      5-min Rain = 0
KWT1 131954Z 17007KT 14/04 A3028 RMK A01 T01420043  RH  051%=      5-min Rain = 0
KWT1 131955Z 19009KT 14/04 A3028 RMK A01 T01440043  RH  051%=      5-min Rain = 0
KWT1 131956Z 21007KT 14/04 A3028 RMK A01 T01440042  RH  050%=      5-min Rain = 0
KWT1 131957Z 15007KT 15/04 A3028 RMK A01 T01450044  RH  051%=      5-min Rain = 0
KWT1 131958Z 16007KT 15/05 A3028 RMK A01 T01490045  RH  050%=      5-min Rain = 0
KWT1 131959Z 16006KT 15/04 A3028 RMK A01 T01480044  RH  050%=      5-min Rain = 0
KWT1 132000Z 16007KT 15/04 A3028 RMK A01 T01470044  RH  050%=      5-min Rain = 0
KWT1 132001Z 19010KT 15/04 A3028 RMK A01 T01460044  RH  050%=      5-min Rain = 0
KWT1 132002Z 18007KT 15/04 A3028 RMK A01 T01450043  RH  050%=      5-min Rain = 0
KWT1 132003Z 19007KT 15/05 A3028 RMK A01 T01460045  RH  051%=      5-min Rain = 0
KWT1 132004Z 18010KT 15/04 A3028 RMK A01 T01460044  RH  051%=      5-min Rain = 0
KWT1 132005Z 18007KT 15/04 A3028 RMK A01 T01460044  RH  050%=      5-min Rain = 0
KWT1 132006Z 19006KT 15/05 A3028 RMK A01 T01470045  RH  050%=      5-min Rain = 0
KWT1 132007Z 21007KT 15/05 A3028 RMK A01 T01480045  RH  050%=      5-min Rain = 0
KWT1 132008Z 18006KT 15/05 A3028 RMK A01 T01480046  RH  050%=      5-min Rain = 0
KWT1 132009Z 19008KT 15/05 A3027 RMK A01 T01510049  RH  051%=      5-min Rain = 0
KWT1 132010Z 18010KT 15/05 A3027 RMK A01 T01520050  RH  051%=      5-min Rain = 0
KWT1 132011Z 17011KT 15/05 A3027 RMK A01 T01520052  RH  051%=      5-min Rain = 0
KWT1 132012Z 20010KT 15/05 A3027 RMK A01 T01520053  RH  051%=      5-min Rain = 0
KWT1 132013Z 21008KT 15/05 A3027 RMK A01 T01520052  RH  051%=      5-min Rain = 0
KWT1 132014Z 19007KT 15/05 A3027 RMK A01 T01520052  RH  051%=      5-min Rain = 0
KWT1 132015Z 19007KT 15/05 A3027 RMK A01 T01540052  RH  050%=      5-min Rain = 0
KWT1 132016Z 18005KT 15/05 A3027 RMK A01 T01540051  RH  050%=      5-min Rain = 0
KWT1 132017Z 19006KT 16/05 A3027 RMK A01 T01560053  RH  050%=      5-min Rain = 0
KWT1 132018Z 18008KT 16/05 A3027 RMK A01 T01590054  RH  050%=      5-min Rain = 0
KWT1 132019Z 19013KT 16/06 A3027 RMK A01 T01610057  RH  050%=      5-min Rain = 0
KWT1 132020Z 20013KT 16/06 A3026 RMK A01 T01610056  RH  050%=      5-min Rain = 0
KWT1 132021Z 17010KT 16/05 A3027 RMK A01 T01590054  RH  050%=      5-min Rain = 0
KWT1 132022Z 19011KT 16/06 A3027 RMK A01 T01610055  RH  049%=      5-min Rain = 0
KWT1 132023Z 19010KT 16/06 A3027 RMK A01 T01620055  RH  049%=      5-min Rain = 0
KWT1 132024Z 18010KT 16/05 A3026 RMK A01 T01610054  RH  049%=      5-min Rain = 0
KWT1 132025Z 17008KT 16/05 A3026 RMK A01 T01600053  RH  049%=      5-min Rain = 0
KWT1 132026Z 17010KT 16/05 A3026 RMK A01 T01600054  RH  049%=      5-min Rain = 0
KWT1 132027Z 14010KT 16/05 A3026 RMK A01 T01640054  RH  048%=      5-min Rain = 0
KWT1 132028Z 16011KT 17/05 A3026 RMK A01 T01660054  RH  047%=      5-min Rain = 0
KWT1 132029Z 17009KT 17/05 A3026 RMK A01 T01650052  RH  047%=      5-min Rain = 0
KWT1 132030Z 17008KT 16/05 A3026 RMK A01 T01620052  RH  048%=      5-min Rain = 0
KWT1 132031Z 16010KT 16/05 A3026 RMK A01 T01620053  RH  048%=      5-min Rain = 0
KWT1 132032Z 17010KT 17/05 A3026 RMK A01 T01650054  RH  048%=      5-min Rain = 0
KWT1 132033Z 19009KT 17/05 A3026 RMK A01 T01650054  RH  048%=      5-min Rain = 0
KWT1 132034Z 18007KT 16/06 A3026 RMK A01 T01640055  RH  048%=      5-min Rain = 0
KWT1 132035Z 18008KT 17/06 A3026 RMK A01 T01650056  RH  048%=      5-min Rain = 0
KWT1 132036Z 17010KT 17/06 A3026 RMK A01 T01660056  RH  048%=      5-min Rain = 0
KWT1 132037Z 17012KT 17/06 A3026 RMK A01 T01680059  RH  048%=      5-min Rain = 0
KWT1 132038Z 19010KT 17/06 A3026 RMK A01 T01710060  RH  048%=      5-min Rain = 0
KWT1 132039Z 17011KT 17/06 A3026 RMK A01 T01720059  RH  047%=      5-min Rain = 0
KWT1 132040Z 18009KT 17/06 A3026 RMK A01 T01710059  RH  047%=      5-min Rain = 0
KWT1 132041Z 18009KT 17/06 A3026 RMK A01 T01740060  RH  047%=      5-min Rain = 0
KWT1 132042Z 19010KT 18/06 A3025 RMK A01 T01760060  RH  047%=      5-min Rain = 0
KWT1 132043Z 17007KT 18/06 A3026 RMK A01 T01750062  RH  047%=      5-min Rain = 0
KWT1 132044Z 19008KT 18/06 A3025 RMK A01 T01750063  RH  048%=      5-min Rain = 0
KWT1 132045Z 19007G12KT 17/06 A3025 RMK A01 T01730062  RH  048%=      5-min Rain = 0
KWT1 132046Z 18008KT 17/06 A3025 RMK A01 T01720063  RH  048%=      5-min Rain = 0
KWT1 132047Z 20010KT 17/06 A3025 RMK A01 T01720062  RH  048%=      5-min Rain = 0
KWT1 132048Z 19011KT 17/07 A3025 RMK A01 T01730065  RH  049%=      5-min Rain = 0
KWT1 132049Z 19012KT 18/07 A3025 RMK A01 T01750067  RH  049%=      5-min Rain = 0
KWT1 132050Z 20016KT 18/07 A3025 RMK A01 T01760072  RH  050%=      5-min Rain = 0
KWT1 132051Z 18014KT 18/07 A3025 RMK A01 T01750073  RH  051%=      5-min Rain = 0
KWT1 132052Z 18012KT 18/07 A3025 RMK A01 T01750073  RH  051%=      5-min Rain = 0
KWT1 132053Z 18013KT 18/07 A3025 RMK A01 T01770074  RH  051%=      5-min Rain = 0
KWT1 132054Z 17014KT 18/07 A3025 RMK A01 T01770074  RH  051%=      5-min Rain = 0
KWT1 132055Z 18015KT 18/07 A3024 RMK A01 T01770074  RH  051%=      5-min Rain = 0
KWT1 132056Z 18015KT 18/08 A3024 RMK A01 T01800075  RH  050%=      5-min Rain = 0
KWT1 132057Z 18013KT 18/07 A3024 RMK A01 T01790074  RH  050%=      5-min Rain = 0
KWT1 132058Z 18011KT 18/07 A3024 RMK A01 T01770073  RH  051%=      5-min Rain = 0
KWT1 132059Z 18010KT 18/07 A3024 RMK A01 T01750073  RH  051%=      5-min Rain = 0
KWT1 132100Z 19008KT 17/07 A3024 RMK A01 T01730073  RH  052%=      5-min Rain = 0
KWT1 132101Z 18010KT 17/07 A3024 RMK A01 T01730074  RH  052%=      5-min Rain = 0
KWT1 132102Z 19011KT 18/08 A3024 RMK A01 T01770075  RH  051%=      5-min Rain = 0
KWT1 132103Z 19009KT 18/08 A3024 RMK A01 T01810075  RH  050%=      5-min Rain = 0
KWT1 132104Z 18012KT 18/07 A3024 RMK A01 T01810074  RH  050%=      5-min Rain = 0
KWT1 132105Z 18013KT 18/08 A3024 RMK A01 T01820075  RH  050%=      5-min Rain = 0
KWT1 132106Z 18016KT 18/07 A3024 RMK A01 T01820074  RH  049%=      5-min Rain = 0
KWT1 132107Z 19010KT 18/07 A3024 RMK A01 T01810074  RH  050%=      5-min Rain = 0
KWT1 132108Z 20008KT 18/08 A3024 RMK A01 T01810075  RH  050%=      5-min Rain = 0
KWT1 132109Z 19011G18KT 18/08 A3024 RMK A01 T01820075  RH  050%=      5-min Rain = 0
KWT1 132110Z 19013KT 18/08 A3024 RMK A01 T01830076  RH  050%=      5-min Rain = 0
KWT1 132111Z 17013KT 19/08 A3024 RMK A01 T01850077  RH  049%=      5-min Rain = 0
KWT1 132112Z 18016KT 19/08 A3024 RMK A01 T01850076  RH  049%=      5-min Rain = 0
KWT1 132113Z 19015KT 18/08 A3023 RMK A01 T01820076  RH  050%=      5-min Rain = 0
KWT1 132114Z 17013KT 18/08 A3023 RMK A01 T01820076  RH  050%=      5-min Rain = 0
KWT1 132115Z 17014KT 18/08 A3024 RMK A01 T01840077  RH  050%=      5-min Rain = 0
KWT1 132116Z 17013KT 19/08 A3024 RMK A01 T01860077  RH  049%=      5-min Rain = 0
KWT1 132117Z 18013KT 19/08 A3024 RMK A01 T01870077  RH  049%=      5-min Rain = 0
KWT1 132118Z 19014KT 19/08 A3023 RMK A01 T01880076  RH  048%=      5-min Rain = 0
KWT1 132119Z 18013KT 18/08 A3023 RMK A01 T01840075  RH  049%=      5-min Rain = 0
KWT1 132120Z 20013G18KT 18/08 A3023 RMK A01 T01820076  RH  050%=      5-min Rain = 0
KWT1 132121Z 19013KT 18/08 A3023 RMK A01 T01820076  RH  050%=      5-min Rain = 0
KWT1 132122Z 19012KT 18/08 A3023 RMK A01 T01830076  RH  050%=      5-min Rain = 0
KWT1 132123Z 17010KT 18/08 A3023 RMK A01 T01840077  RH  050%=      5-min Rain = 0
KWT1 132124Z 16011KT 19/08 A3023 RMK A01 T01850076  RH  049%=      5-min Rain = 0
KWT1 132125Z 16009KT 18/08 A3023 RMK A01 T01830076  RH  050%=      5-min Rain = 0
KWT1 132126Z 17009KT 18/08 A3023 RMK A01 T01820076  RH  050%=      5-min Rain = 0
KWT1 132127Z 19011G16KT 18/08 A3023 RMK A01 T01820077  RH  050%=      5-min Rain = 0
KWT1 132128Z 20016KT 18/08 A3023 RMK A01 T01840077  RH  050%=      5-min Rain = 0
KWT1 132129Z 20012KT 19/08 A3023 RMK A01 T01850078  RH  050%=      5-min Rain = 0
KWT1 132130Z 20010KT 19/08 A3023 RMK A01 T01850077  RH  050%=      5-min Rain = 0
KWT1 132131Z 17010KT 18/08 A3023 RMK A01 T01840077  RH  050%=      5-min Rain = 0
KWT1 132132Z 18009G14KT 19/08 A3023 RMK A01 T01850078  RH  050%=      5-min Rain = 0
KWT1 132133Z 18014KT 19/08 A3023 RMK A01 T01870079  RH  049%=      5-min Rain = 0
KWT1 132134Z 18013KT 19/08 A3023 RMK A01 T01870078  RH  049%=      5-min Rain = 0
KWT1 132135Z 17014G19KT 19/08 A3023 RMK A01 T01860078  RH  049%=      5-min Rain = 0
KWT1 132136Z 16015KT 19/08 A3023 RMK A01 T01880079  RH  049%=      5-min Rain = 0
KWT1 132137Z 17015KT 19/08 A3023 RMK A01 T01860078  RH  049%=      5-min Rain = 0
KWT1 132138Z 17015KT 18/08 A3023 RMK A01 T01840078  RH  050%=      5-min Rain = 0
KWT1 132139Z 17015KT 18/08 A3023 RMK A01 T01840079  RH  050%=      5-min Rain = 0
KWT1 132140Z 17015KT 18/08 A3023 RMK A01 T01830079  RH  051%=      5-min Rain = 0
KWT1 132141Z 17013KT 18/08 A3023 RMK A01 T01840079  RH  051%=      5-min Rain = 0
KWT1 132142Z 17012KT 18/08 A3023 RMK A01 T01840079  RH  051%=      5-min Rain = 0
KWT1 132143Z 17011G16KT 18/08 A3023 RMK A01 T01840080  RH  051%=      5-min Rain = 0
KWT1 132144Z 18015G20KT 19/08 A3022 RMK A01 T01870081  RH  050%=      5-min Rain = 0
KWT1 132145Z 17013KT 19/08 A3023 RMK A01 T01880080  RH  049%=      5-min Rain = 0
KWT1 132146Z 18013G18KT 19/08 A3023 RMK A01 T01880080  RH  049%=      5-min Rain = 0
KWT1 132147Z 18014KT 19/08 A3023 RMK A01 T01880080  RH  050%=      5-min Rain = 0
KWT1 132148Z 18010KT 19/08 A3023 RMK A01 T01870081  RH  050%=      5-min Rain = 0
KWT1 132149Z 18013KT 19/08 A3023 RMK A01 T01870082  RH  050%=      5-min Rain = 0
KWT1 132150Z 19010KT 19/08 A3023 RMK A01 T01890083  RH  050%=      5-min Rain = 0
KWT1 132151Z 19011KT 19/08 A3023 RMK A01 T01910084  RH  050%=      5-min Rain = 0
KWT1 132152Z 19013KT 19/09 A3022 RMK A01 T01930085  RH  049%=      5-min Rain = 0
KWT1 132153Z 20012KT 19/09 A3022 RMK A01 T01940085  RH  049%=      5-min Rain = 0
KWT1 132154Z 19014KT 19/09 A3022 RMK A01 T01940085  RH  049%=      5-min Rain = 0
KWT1 132155Z 17013KT 19/08 A3022 RMK A01 T01940084  RH  049%=      5-min Rain = 0
KWT1 132156Z 15014KT 19/08 A3022 RMK A01 T01910082  RH  049%=      5-min Rain = 0
KWT1 132157Z 17016KT 19/08 A3022 RMK A01 T01890082  RH  050%=      5-min Rain = 0
KWT1 132158Z 18012KT 19/08 A3022 RMK A01 T01880082  RH  050%=      5-min Rain = 0
KWT1 132159Z 17010KT 19/08 A3022 RMK A01 T01880083  RH  050%=      5-min Rain = 0
KWT1 132200Z 16016KT 19/08 A3022 RMK A01 T01900083  RH  050%=      5-min Rain = 0
KWT1 132201Z 17015KT 19/08 A3022 RMK A01 T01890083  RH  050%=      5-min Rain = 0
KWT1 132202Z 17013KT 19/08 A3022 RMK A01 T01880083  RH  051%=      5-min Rain = 0
KWT1 132203Z 20013KT 19/08 A3022 RMK A01 T01890084  RH  051%=      5-min Rain = 0
KWT1 132204Z 18012KT 19/08 A3022 RMK A01 T01890083  RH  050%=      5-min Rain = 0
KWT1 132205Z 17017KT 19/08 A3022 RMK A01 T01870083  RH  051%=      5-min Rain = 0
KWT1 132206Z 17015KT 19/08 A3022 RMK A01 T01880084  RH  051%=      5-min Rain = 0
KWT1 132207Z 17014KT 19/08 A3022 RMK A01 T01890083  RH  050%=      5-min Rain = 0
KWT1 132208Z 18016KT 19/08 A3022 RMK A01 T01890084  RH  050%=      5-min Rain = 0
KWT1 132209Z 19013KT 19/08 A3022 RMK A01 T01880084  RH  051%=      5-min Rain = 0
KWT1 132210Z 19013KT 19/08 A3022 RMK A01 T01860084  RH  051%=      5-min Rain = 0
KWT1 132211Z 18011KT 19/08 A3022 RMK A01 T01860084  RH  051%=      5-min Rain = 0
KWT1 132212Z 19012G17KT 19/08 A3022 RMK A01 T01860084  RH  052%=      5-min Rain = 0
KWT1 132213Z 19014KT 19/08 A3022 RMK A01 T01860084  RH  052%=      5-min Rain = 0
KWT1 132214Z 18014KT 19/08 A3022 RMK A01 T01850084  RH  052%=      5-min Rain = 0
KWT1 132215Z 17014KT 19/09 A3022 RMK A01 T01860086  RH  052%=      5-min Rain = 0
KWT1 132216Z 17013KT 19/09 A3022 RMK A01 T01870086  RH  052%=      5-min Rain = 0
KWT1 132217Z 18013KT 19/09 A3022 RMK A01 T01880086  RH  051%=      5-min Rain = 0
KWT1 132218Z 18014KT 19/09 A3021 RMK A01 T01880086  RH  051%=      5-min Rain = 0
KWT1 132219Z 17016KT 19/09 A3021 RMK A01 T01900086  RH  051%=      5-min Rain = 0
KWT1 132220Z 18012KT 19/09 A3021 RMK A01 T01880086  RH  051%=      5-min Rain = 0
KWT1 132221Z 18012G19KT 19/09 A3022 RMK A01 T01860085  RH  052%=      5-min Rain = 0
KWT1 132222Z 17015KT 19/09 A3022 RMK A01 T01860086  RH  052%=      5-min Rain = 0
KWT1 132223Z 16014G19KT 19/09 A3022 RMK A01 T01870087  RH  052%=      5-min Rain = 0
KWT1 132224Z 18016G22KT 19/09 A3022 RMK A01 T01890087  RH  052%=      5-min Rain = 0
KWT1 132225Z 18015KT 19/09 A3022 RMK A01 T01900087  RH  051%=      5-min Rain = 0
KWT1 132226Z 18014KT 19/09 A3022 RMK A01 T01900087  RH  051%=      5-min Rain = 0
KWT1 132227Z 18016KT 19/09 A3022 RMK A01 T01890087  RH  052%=      5-min Rain = 0
KWT1 132228Z 18015KT 19/09 A3022 RMK A01 T01880087  RH  052%=      5-min Rain = 0
KWT1 132229Z 17013KT 19/09 A3022 RMK A01 T01870088  RH  052%=      5-min Rain = 0
KWT1 132230Z 18013KT 19/09 A3022 RMK A01 T01880088  RH  052%=      5-min Rain = 0
KWT1 132231Z 18014KT 19/09 A3022 RMK A01 T01900088  RH  052%=      5-min Rain = 0
KWT1 132232Z 17014KT 19/09 A3022 RMK A01 T01900088  RH  052%=      5-min Rain = 0
KWT1 132233Z 17011KT 19/09 A3022 RMK A01 T01900088  RH  052%=      5-min Rain = 0
KWT1 132234Z 18008KT 19/09 A3022 RMK A01 T01910088  RH  051%=      5-min Rain = 0
KWT1 132235Z 19011KT 19/09 A3022 RMK A01 T01920088  RH  051%=      5-min Rain = 0
KWT1 132236Z 19009KT 19/09 A3022 RMK A01 T01910088  RH  051%=      5-min Rain = 0
KWT1 132237Z 18009KT 19/09 A3022 RMK A01 T01900088  RH  052%=      5-min Rain = 0
KWT1 132238Z 16012KT 19/09 A3022 RMK A01 T01910089  RH  052%=      5-min Rain = 0
KWT1 132239Z 16013KT 19/09 A3022 RMK A01 T01910088  RH  051%=      5-min Rain = 0
KWT1 132240Z 18015KT 19/09 A3022 RMK A01 T01910088  RH  052%=      5-min Rain = 0
KWT1 132241Z 18014KT 19/09 A3022 RMK A01 T01900088  RH  052%=      5-min Rain = 0
KWT1 132242Z 18014KT 19/09 A3023 RMK A01 T01890088  RH  052%=      5-min Rain = 0
KWT1 132243Z 16013KT 19/09 A3022 RMK A01 T01890089  RH  052%=      5-min Rain = 0
KWT1 132244Z 17015KT 19/09 A3022 RMK A01 T01880089  RH  052%=      5-min Rain = 0
KWT1 132245Z 17012KT 19/09 A3022 RMK A01 T01890089  RH  052%=      5-min Rain = 0
KWT1 132246Z 16013KT 19/09 A3022 RMK A01 T01890089  RH  052%=      5-min Rain = 0
KWT1 132247Z 17014KT 19/09 A3022 RMK A01 T01890089  RH  052%=      5-min Rain = 0
KWT1 132248Z 17013KT 19/09 A3022 RMK A01 T01890089  RH  052%=      5-min Rain = 0
KWT1 132249Z 17013KT 19/09 A3022 RMK A01 T01880089  RH  052%=      5-min Rain = 0
KWT1 132250Z 17011G16KT 19/09 A3022 RMK A01 T01880089  RH  052%=      5-min Rain = 0
KWT1 132251Z 17013KT 19/09 A3022 RMK A01 T01890089  RH  052%=      5-min Rain = 0
KWT1 132252Z 18011KT 19/09 A3022 RMK A01 T01890088  RH  052%=      5-min Rain = 0
KWT1 132253Z 17011KT 19/09 A3022 RMK A01 T01880088  RH  052%=      5-min Rain = 0
KWT1 132254Z 17011KT 19/09 A3022 RMK A01 T01880089  RH  052%=      5-min Rain = 0
KWT1 132255Z 17011KT 19/09 A3022 RMK A01 T01900090  RH  052%=      5-min Rain = 0
KWT1 132256Z 16009KT 19/09 A3022 RMK A01 T01900090  RH  052%=      5-min Rain = 0
KWT1 132257Z 16010KT 19/09 A3022 RMK A01 T01890090  RH  052%=      5-min Rain = 0
KWT1 132258Z 16013KT 19/09 A3022 RMK A01 T01900090  RH  052%=      5-min Rain = 0
KWT1 132259Z 16013KT 19/09 A3022 RMK A01 T01890089  RH  052%=      5-min Rain = 0
KWT1 132300Z 16010KT 19/09 A3022 RMK A01 T01870089  RH  053%=      5-min Rain = 0
KWT1 132301Z 16008KT 19/09 A3022 RMK A01 T01860089  RH  053%=      5-min Rain = 0
KWT1 132302Z 16010KT 19/09 A3021 RMK A01 T01850089  RH  053%=      5-min Rain = 0
KWT1 132303Z 17014KT 19/09 A3021 RMK A01 T01860089  RH  053%=      5-min Rain = 0
KWT1 132304Z 18014KT 19/09 A3021 RMK A01 T01870088  RH  052%=      5-min Rain = 0
KWT1 132305Z 17013KT 19/09 A3021 RMK A01 T01870089  RH  053%=      5-min Rain = 0
KWT1 132306Z 17013KT 19/09 A3022 RMK A01 T01860089  RH  053%=      5-min Rain = 0
KWT1 132307Z 17014KT 19/09 A3022 RMK A01 T01850089  RH  054%=      5-min Rain = 0
KWT1 132308Z 16013KT 19/09 A3022 RMK A01 T01850090  RH  054%=      5-min Rain = 0
KWT1 132309Z 17014KT 19/09 A3021 RMK A01 T01850090  RH  054%=      5-min Rain = 0
KWT1 132310Z 17014KT 19/09 A3021 RMK A01 T01850089  RH  054%=      5-min Rain = 0
KWT1 132311Z 17012KT 18/09 A3022 RMK A01 T01840089  RH  054%=      5-min Rain = 0
KWT1 132312Z 17010KT 18/09 A3022 RMK A01 T01830089  RH  054%=      5-min Rain = 0
KWT1 132313Z 17010KT 18/09 A3022 RMK A01 T01830089  RH  054%=      5-min Rain = 0
KWT1 132314Z 17011KT 18/09 A3022 RMK A01 T01830090  RH  054%=      5-min Rain = 0
KWT1 132315Z 16012KT 18/09 A3022 RMK A01 T01830089  RH  054%=      5-min Rain = 0
KWT1 132316Z 17012KT 18/09 A3022 RMK A01 T01830090  RH  054%=      5-min Rain = 0
KWT1 132317Z 17010KT 18/09 A3022 RMK A01 T01830090  RH  054%=      5-min Rain = 0
KWT1 132318Z 16010KT 18/09 A3022 RMK A01 T01820090  RH  055%=      5-min Rain = 0
KWT1 132319Z 16010KT 18/09 A3022 RMK A01 T01820090  RH  055%=      5-min Rain = 0
KWT1 132320Z 15011KT 18/09 A3022 RMK A01 T01820089  RH  055%=      5-min Rain = 0
KWT1 132321Z 16012KT 18/09 A3022 RMK A01 T01810090  RH  055%=      5-min Rain = 0
KWT1 132322Z 17011KT 18/09 A3022 RMK A01 T01810089  RH  055%=      5-min Rain = 0
KWT1 132323Z 18011KT 18/09 A3022 RMK A01 T01810090  RH  055%=      5-min Rain = 0
KWT1 132324Z 18013KT 18/09 A3022 RMK A01 T01800089  RH  055%=      5-min Rain = 0
KWT1 132325Z 17013KT 18/09 A3022 RMK A01 T01800090  RH  056%=      5-min Rain = 0
KWT1 132326Z 17012KT 18/09 A3022 RMK A01 T01790090  RH  056%=      5-min Rain = 0
KWT1 132327Z 16011KT 18/09 A3022 RMK A01 T01790090  RH  056%=      5-min Rain = 0
KWT1 132328Z 17014KT 18/09 A3022 RMK A01 T01790090  RH  056%=      5-min Rain = 0
KWT1 132329Z 16011KT 18/09 A3022 RMK A01 T01790090  RH  056%=      5-min Rain = 0
KWT1 132330Z 16011KT 18/09 A3022 RMK A01 T01790090  RH  056%=      5-min Rain = 0
KWT1 132331Z 16013KT 18/09 A3022 RMK A01 T01790090  RH  056%=      5-min Rain = 0
KWT1 132332Z 15011KT 18/09 A3022 RMK A01 T01790091  RH  056%=      5-min Rain = 0
KWT1 132333Z 16014KT 18/09 A3022 RMK A01 T01780090  RH  056%=      5-min Rain = 0
KWT1 132334Z 16013KT 18/09 A3022 RMK A01 T01780090  RH  057%=      5-min Rain = 0
KWT1 132335Z 16013KT 18/09 A3022 RMK A01 T01780090  RH  057%=      5-min Rain = 0
KWT1 132336Z 16012KT 18/09 A3022 RMK A01 T01770090  RH  057%=      5-min Rain = 0
KWT1 132337Z 16012KT 18/09 A3022 RMK A01 T01770090  RH  057%=      5-min Rain = 0
KWT1 132338Z 16012KT 18/09 A3022 RMK A01 T01770090  RH  057%=      5-min Rain = 0
KWT1 132339Z 16012KT 18/09 A3023 RMK A01 T01770090  RH  057%=      5-min Rain = 0
KWT1 132340Z 17013KT 18/09 A3023 RMK A01 T01770090  RH  057%=      5-min Rain = 0
KWT1 132341Z 17013KT 18/09 A3023 RMK A01 T01770090  RH  057%=      5-min Rain = 0
KWT1 132342Z 16013KT 18/09 A3023 RMK A01 T01760091  RH  057%=      5-min Rain = 0
KWT1 132343Z 16012KT 18/09 A3023 RMK A01 T01760091  RH  057%=      5-min Rain = 0
KWT1 132344Z 17013KT 18/09 A3023 RMK A01 T01760091  RH  057%=      5-min Rain = 0
KWT1 132345Z 17011KT 18/09 A3023 RMK A01 T01760091  RH  057%=      5-min Rain = 0
KWT1 132346Z 17011KT 18/09 A3023 RMK A01 T01760091  RH  057%=      5-min Rain = 0
KWT1 132347Z 17009KT 18/09 A3023 RMK A01 T01750091  RH  058%=      5-min Rain = 0
KWT1 132348Z 17012KT 18/09 A3023 RMK A01 T01750090  RH  058%=      5-min Rain = 0
KWT1 132349Z 17012KT 17/09 A3023 RMK A01 T01740091  RH  058%=      5-min Rain = 0
KWT1 132350Z 17012KT 17/09 A3023 RMK A01 T01740090  RH  058%=      5-min Rain = 0
KWT1 132351Z 17011KT 17/09 A3023 RMK A01 T01740091  RH  058%=      5-min Rain = 0
KWT1 132352Z 17010KT 17/09 A3023 RMK A01 T01740090  RH  058%=      5-min Rain = 0
KWT1 132353Z 16010KT 17/09 A3023 RMK A01 T01730090  RH  058%=      5-min Rain = 0
KWT1 132354Z 17011KT 17/09 A3023 RMK A01 T01730090  RH  058%=      5-min Rain = 0
KWT1 132355Z 17012KT 17/09 A3023 RMK A01 T01730090  RH  058%=      5-min Rain = 0
KWT1 132356Z 17009KT 17/09 A3024 RMK A01 T01730090  RH  058%=      5-min Rain = 0
KWT1 132357Z 17012KT 17/09 A3023 RMK A01 T01720090  RH  058%=      5-min Rain = 0
KWT1 132358Z 17011KT 17/09 A3023 RMK A01 T01720090  RH  058%=      5-min Rain = 0
KWT1 132359Z 17011KT 17/09 A3023 RMK A01 T01720090  RH  058%=      5-min Rain = 0
KWT1 140000Z 17011KT 17/09 A3023 RMK A01 T01710090  RH  059%=      5-min Rain = 0
KWT1 140001Z 17010KT 17/09 A3024 RMK A01 T01720090  RH  059%=      5-min Rain = 0
KWT1 140002Z 17010KT 17/09 A3024 RMK A01 T01710089  RH  059%=      5-min Rain = 0
KWT1 140003Z 17010KT 17/09 A3024 RMK A01 T01710089  RH  059%=      5-min Rain = 0
KWT1 140004Z 17010KT 17/09 A3024 RMK A01 T01710089  RH  059%=      5-min Rain = 0
KWT1 140005Z 17011KT 17/09 A3024 RMK A01 T01700089  RH  059%=      5-min Rain = 0
KWT1 140011Z 17011KT 17/09 A3024 RMK A01 T01670088  RH  059%=      5-min Rain = 0
KWT1 140012Z 16010KT 17/09 A3024 RMK A01 T01670088  RH  060%=      5-min Rain = 0
KWT1 140013Z 16008KT 17/09 A3024 RMK A01 T01670088  RH  060%=      5-min Rain = 0
KWT1 140014Z 16009KT 17/09 A3024 RMK A01 T01660088  RH  060%=      5-min Rain = 0
KWT1 140015Z 16011KT 17/09 A3024 RMK A01 T01650089  RH  061%=      5-min Rain = 0
KWT1 140016Z 16012KT 17/09 A3024 RMK A01 T01650090  RH  061%=      5-min Rain = 0
KWT1 140017Z 16008KT 17/09 A3024 RMK A01 T01650090  RH  061%=      5-min Rain = 0
KWT1 140018Z 16010KT 16/09 A3024 RMK A01 T01640089  RH  061%=      5-min Rain = 0
KWT1 140019Z 16009KT 16/09 A3024 RMK A01 T01630089  RH  061%=      5-min Rain = 0
KWT1 140020Z 16009KT 16/09 A3024 RMK A01 T01630089  RH  062%=      5-min Rain = 0
KWT1 140021Z 16008KT 16/09 A3024 RMK A01 T01620089  RH  062%=      5-min Rain = 0
KWT1 140022Z 16009KT 16/09 A3024 RMK A01 T01610089  RH  062%=      5-min Rain = 0
KWT1 140023Z 15009KT 16/09 A3024 RMK A01 T01610089  RH  062%=      5-min Rain = 0
KWT1 140024Z 16009KT 16/09 A3024 RMK A01 T01610089  RH  062%=      5-min Rain = 0
KWT1 140025Z 15009KT 16/09 A3024 RMK A01 T01600089  RH  063%=      5-min Rain = 0
KWT1 140026Z 16009KT 16/09 A3024 RMK A01 T01600089  RH  063%=      5-min Rain = 0
KWT1 140027Z 16009KT 16/09 A3024 RMK A01 T01590089  RH  063%=      5-min Rain = 0
KWT1 140028Z 16008KT 16/09 A3024 RMK A01 T01590089  RH  063%=      5-min Rain = 0
KWT1 140029Z 16008KT 16/09 A3024 RMK A01 T01590089  RH  063%=      5-min Rain = 0
KWT1 140030Z 16009KT 16/09 A3024 RMK A01 T01580089  RH  063%=      5-min Rain = 0
KWT1 140031Z 16008KT 16/09 A3024 RMK A01 T01580089  RH  064%=      5-min Rain = 0
KWT1 140032Z 16008KT 16/09 A3024 RMK A01 T01570089  RH  064%=      5-min Rain = 0
KWT1 140033Z 16008KT 16/09 A3024 RMK A01 T01560088  RH  064%=      5-min Rain = 0
KWT1 140034Z 16007KT 16/09 A3024 RMK A01 T01560088  RH  064%=      5-min Rain = 0
KWT1 140035Z 16008KT 16/09 A3024 RMK A01 T01550088  RH  064%=      5-min Rain = 0
KWT1 140036Z 16008KT 15/09 A3024 RMK A01 T01540088  RH  065%=      5-min Rain = 0
KWT1 140037Z 16007KT 15/09 A3024 RMK A01 T01540088  RH  065%=      5-min Rain = 0
KWT1 140038Z 16007KT 15/09 A3024 RMK A01 T01540088  RH  065%=      5-min Rain = 0
KWT1 140039Z 16008KT 15/09 A3024 RMK A01 T01530088  RH  065%=      5-min Rain = 0
KWT1 140040Z 16008KT 15/09 A3024 RMK A01 T01520087  RH  065%=      5-min Rain = 0
KWT1 140041Z 16008KT 15/09 A3024 RMK A01 T01520087  RH  065%=      5-min Rain = 0
KWT1 140042Z 16008KT 15/09 A3024 RMK A01 T01510087  RH  066%=      5-min Rain = 0
KWT1 140043Z 16008KT 15/09 A3024 RMK A01 T01510088  RH  066%=      5-min Rain = 0
KWT1 140044Z 16009KT 15/09 A3024 RMK A01 T01510087  RH  066%=      5-min Rain = 0
KWT1 140045Z 16008KT 15/09 A3024 RMK A01 T01500088  RH  066%=      5-min Rain = 0
KWT1 140046Z 16008KT 15/09 A3024 RMK A01 T01510088  RH  066%=      5-min Rain = 0
KWT1 140047Z 16008KT 15/09 A3024 RMK A01 T01500088  RH  066%=      5-min Rain = 0
KWT1 140048Z 16008KT 15/09 A3024 RMK A01 T01500088  RH  066%=      5-min Rain = 0
KWT1 140049Z 16008KT 15/09 A3024 RMK A01 T01490087  RH  066%=      5-min Rain = 0
KWT1 140050Z 16008KT 15/09 A3024 RMK A01 T01490087  RH  067%=      5-min Rain = 0
KWT1 140051Z 16008KT 15/09 A3024 RMK A01 T01490087  RH  067%=      5-min Rain = 0
KWT1 140052Z 16008KT 15/09 A3024 RMK A01 T01480087  RH  067%=      5-min Rain = 0
KWT1 140053Z 16008KT 15/09 A3024 RMK A01 T01480087  RH  067%=      5-min Rain = 0
KWT1 140054Z 16008KT 15/09 A3024 RMK A01 T01480088  RH  067%=      5-min Rain = 0
KWT1 140055Z 16007KT 15/09 A3024 RMK A01 T01480088  RH  067%=      5-min Rain = 0
KWT1 140056Z 16007KT 15/09 A3024 RMK A01 T01470087  RH  067%=      5-min Rain = 0
KWT1 140057Z 16007KT 15/09 A3024 RMK A01 T01470087  RH  067%=      5-min Rain = 0
KWT1 140058Z 16007KT 15/09 A3024 RMK A01 T01470087  RH  067%=      5-min Rain = 0
KWT1 140059Z 16007KT 15/09 A3024 RMK A01 T01460087  RH  068%=      5-min Rain = 0
KWT1 140100Z 16007KT 15/09 A3024 RMK A01 T01460087  RH  068%=      5-min Rain = 0
KWT1 140101Z 16007KT 15/09 A3024 RMK A01 T01460087  RH  068%=      5-min Rain = 0
KWT1 140102Z 16007KT 15/09 A3024 RMK A01 T01460087  RH  068%=      5-min Rain = 0
KWT1 140103Z 16007KT 15/09 A3024 RMK A01 T01450087  RH  068%=      5-min Rain = 0
KWT1 140104Z 16007KT 15/09 A3024 RMK A01 T01450087  RH  068%=      5-min Rain = 0
KWT1 140105Z 16007KT 15/09 A3024 RMK A01 T01450087  RH  068%=      5-min Rain = 0
KWT1 140106Z 16007KT 14/09 A3024 RMK A01 T01440086  RH  068%=      5-min Rain = 0
KWT1 140107Z 16007KT 14/09 A3024 RMK A01 T01440086  RH  068%=      5-min Rain = 0
KWT1 140108Z 16007KT 14/09 A3024 RMK A01 T01430086  RH  068%=      5-min Rain = 0
KWT1 140109Z 16007KT 14/09 A3025 RMK A01 T01430086  RH  069%=      5-min Rain = 0
KWT1 140110Z 16007KT 14/09 A3025 RMK A01 T01420086  RH  069%=      5-min Rain = 0
KWT1 140111Z 16007KT 14/09 A3025 RMK A01 T01420086  RH  069%=      5-min Rain = 0
KWT1 140112Z 16007KT 14/09 A3025 RMK A01 T01420086  RH  069%=      5-min Rain = 0
KWT1 140113Z 16007KT 14/09 A3024 RMK A01 T01410086  RH  069%=      5-min Rain = 0
KWT1 140114Z 16007KT 14/09 A3024 RMK A01 T01410086  RH  069%=      5-min Rain = 0
KWT1 140115Z 16007KT 14/09 A3024 RMK A01 T01400085  RH  069%=      5-min Rain = 0
KWT1 140116Z 16008KT 14/09 A3024 RMK A01 T01390085  RH  070%=      5-min Rain = 0
KWT1 140117Z 16007KT 14/09 A3024 RMK A01 T01390086  RH  070%=      5-min Rain = 0
KWT1 140118Z 16008KT 14/09 A3024 RMK A01 T01390086  RH  070%=      5-min Rain = 0
KWT1 140119Z 16007KT 14/09 A3024 RMK A01 T01390086  RH  070%=      5-min Rain = 0
KWT1 140120Z 16007KT 14/09 A3024 RMK A01 T01400086  RH  070%=      5-min Rain = 0
KWT1 140121Z 16008KT 14/09 A3024 RMK A01 T01400086  RH  070%=      5-min Rain = 0
KWT1 140122Z 16007KT 14/09 A3024 RMK A01 T01400086  RH  070%=      5-min Rain = 0
KWT1 140123Z 16008KT 14/09 A3025 RMK A01 T01400086  RH  070%=      5-min Rain = 0
KWT1 140124Z 16008KT 14/09 A3025 RMK A01 T01400087  RH  070%=      5-min Rain = 0
KWT1 140125Z 16007KT 14/09 A3025 RMK A01 T01400086  RH  070%=      5-min Rain = 0
KWT1 140126Z 16008KT 14/09 A3025 RMK A01 T01400087  RH  070%=      5-min Rain = 0
KWT1 140127Z 16008KT 14/09 A3025 RMK A01 T01400087  RH  070%=      5-min Rain = 0
KWT1 140128Z 16008KT 14/09 A3025 RMK A01 T01410087  RH  070%=      5-min Rain = 0
KWT1 140129Z 16007KT 14/09 A3025 RMK A01 T01410087  RH  070%=      5-min Rain = 0
KWT1 140130Z 16008KT 14/09 A3025 RMK A01 T01410088  RH  070%=      5-min Rain = 0
KWT1 140131Z 15008KT 14/09 A3025 RMK A01 T01410088  RH  070%=      5-min Rain = 0
KWT1 140132Z 15007KT 14/09 A3025 RMK A01 T01400087  RH  070%=      5-min Rain = 0
KWT1 140133Z 16007KT 14/09 A3025 RMK A01 T01400088  RH  071%=      5-min Rain = 0
KWT1 140134Z 15007KT 14/09 A3025 RMK A01 T01400088  RH  071%=      5-min Rain = 0
KWT1 140135Z 15007KT 14/09 A3025 RMK A01 T01400088  RH  071%=      5-min Rain = 0
KWT1 140136Z 16007KT 14/09 A3025 RMK A01 T01390087  RH  071%=      5-min Rain = 0
KWT1 140137Z 16006KT 14/09 A3025 RMK A01 T01390087  RH  071%=      5-min Rain = 0
KWT1 140138Z 16006KT 14/09 A3025 RMK A01 T01380087  RH  071%=      5-min Rain = 0
KWT1 140139Z 16006KT 14/09 A3025 RMK A01 T01380087  RH  071%=      5-min Rain = 0
KWT1 140140Z 16006KT 14/09 A3025 RMK A01 T01370087  RH  071%=      5-min Rain = 0
KWT1 140141Z 16005KT 14/09 A3025 RMK A01 T01370086  RH  071%=      5-min Rain = 0
KWT1 140142Z 16006KT 14/09 A3025 RMK A01 T01360086  RH  072%=      5-min Rain = 0
KWT1 140143Z 15007KT 14/09 A3025 RMK A01 T01360086  RH  072%=      5-min Rain = 0
KWT1 140144Z 15006KT 14/09 A3025 RMK A01 T01350086  RH  072%=      5-min Rain = 0
KWT1 140145Z 15007KT 14/09 A3025 RMK A01 T01350086  RH  072%=      5-min Rain = 0
KWT1 140146Z 16007KT 14/09 A3025 RMK A01 T01350086  RH  072%=      5-min Rain = 0
KWT1 140147Z 16008KT 14/09 A3025 RMK A01 T01350087  RH  073%=      5-min Rain = 0
KWT1 140148Z 16007KT 14/09 A3025 RMK A01 T01350087  RH  072%=      5-min Rain = 0
KWT1 140149Z 16007KT 14/09 A3025 RMK A01 T01350087  RH  072%=      5-min Rain = 0
KWT1 140150Z 16007KT 14/09 A3025 RMK A01 T01350087  RH  072%=      5-min Rain = 0
KWT1 140151Z 16008KT 14/09 A3025 RMK A01 T01350087  RH  073%=      5-min Rain = 0
KWT1 140152Z 15008KT 14/09 A3025 RMK A01 T01350087  RH  073%=      5-min Rain = 0
KWT1 140153Z 16008KT 13/09 A3025 RMK A01 T01340087  RH  073%=      5-min Rain = 0
KWT1 140154Z 16008KT 14/09 A3025 RMK A01 T01350088  RH  073%=      5-min Rain = 0
KWT1 140155Z 16007KT 13/09 A3025 RMK A01 T01340088  RH  073%=      5-min Rain = 0
KWT1 140156Z 16007KT 13/09 A3025 RMK A01 T01340088  RH  073%=      5-min Rain = 0
KWT1 140157Z 16007KT 13/09 A3025 RMK A01 T01340088  RH  073%=      5-min Rain = 0
KWT1 140158Z 16008KT 13/09 A3025 RMK A01 T01340088  RH  074%=      5-min Rain = 0
KWT1 140159Z 16008KT 13/09 A3025 RMK A01 T01340088  RH  074%=      5-min Rain = 0
KWT1 140200Z 16007KT 13/09 A3025 RMK A01 T01340088  RH  074%=      5-min Rain = 0
KWT1 140201Z 16007KT 13/09 A3025 RMK A01 T01340088  RH  074%=      5-min Rain = 0
KWT1 140202Z 17007KT 13/09 A3025 RMK A01 T01330088  RH  074%=      5-min Rain = 0
KWT1 140203Z 17007KT 13/09 A3025 RMK A01 T01330088  RH  074%=      5-min Rain = 0
KWT1 140204Z 16007KT 13/09 A3025 RMK A01 T01330089  RH  074%=      5-min Rain = 0
KWT1 140205Z 17007KT 13/09 A3025 RMK A01 T01330089  RH  074%=      5-min Rain = 0
KWT1 140206Z 17007KT 13/09 A3025 RMK A01 T01330089  RH  074%=      5-min Rain = 0
KWT1 140207Z 17007KT 13/09 A3025 RMK A01 T01330089  RH  074%=      5-min Rain = 0
KWT1 140208Z 16007KT 13/09 A3025 RMK A01 T01330089  RH  075%=      5-min Rain = 0
KWT1 140209Z 16007KT 13/09 A3025 RMK A01 T01330089  RH  074%=      5-min Rain = 0
KWT1 140210Z 16008KT 13/09 A3025 RMK A01 T01330089  RH  075%=      5-min Rain = 0
KWT1 140211Z 16007KT 13/09 A3025 RMK A01 T01330089  RH  075%=      5-min Rain = 0
KWT1 140212Z 16008KT 13/09 A3025 RMK A01 T01330089  RH  075%=      5-min Rain = 0
KWT1 140213Z 16007KT 13/09 A3025 RMK A01 T01320089  RH  075%=      5-min Rain = 0
KWT1 140214Z 17007KT 13/09 A3025 RMK A01 T01320089  RH  075%=      5-min Rain = 0
KWT1 140215Z 17007KT 13/09 A3025 RMK A01 T01320089  RH  075%=      5-min Rain = 0
KWT1 140216Z 17007KT 13/09 A3025 RMK A01 T01320088  RH  075%=      5-min Rain = 0
KWT1 140217Z 16008KT 13/09 A3025 RMK A01 T01310089  RH  075%=      5-min Rain = 0
KWT1 140218Z 16007KT 13/09 A3025 RMK A01 T01310089  RH  075%=      5-min Rain = 0
KWT1 140219Z 17008KT 13/09 A3025 RMK A01 T01310089  RH  076%=      5-min Rain = 0
KWT1 140220Z 17008KT 13/09 A3025 RMK A01 T01310089  RH  076%=      5-min Rain = 0
KWT1 140221Z 16008KT 13/09 A3025 RMK A01 T01310089  RH  076%=      5-min Rain = 0
KWT1 140222Z 16009KT 13/09 A3025 RMK A01 T01300088  RH  076%=      5-min Rain = 0
KWT1 140223Z 16008KT 13/09 A3025 RMK A01 T01300089  RH  076%=      5-min Rain = 0
KWT1 140224Z 16008KT 13/09 A3025 RMK A01 T01300089  RH  076%=      5-min Rain = 0
KWT1 140225Z 17009KT 13/09 A3025 RMK A01 T01300089  RH  076%=      5-min Rain = 0
KWT1 140226Z 16008KT 13/09 A3025 RMK A01 T01300089  RH  076%=      5-min Rain = 0
KWT1 140227Z 16008KT 13/09 A3025 RMK A01 T01300089  RH  076%=      5-min Rain = 0
KWT1 140228Z 16008KT 13/09 A3025 RMK A01 T01290089  RH  077%=      5-min Rain = 0
KWT1 140229Z 16008KT 13/09 A3025 RMK A01 T01290089  RH  077%=      5-min Rain = 0
KWT1 140230Z 16009KT 13/09 A3025 RMK A01 T01290090  RH  077%=      5-min Rain = 0
KWT1 140231Z 16009KT 13/09 A3025 RMK A01 T01280089  RH  077%=      5-min Rain = 0
KWT1 140232Z 16009KT 13/09 A3025 RMK A01 T01280090  RH  077%=      5-min Rain = 0
KWT1 140233Z 16009KT 13/09 A3025 RMK A01 T01290090  RH  077%=      5-min Rain = 0
KWT1 140234Z 16008KT 13/09 A3025 RMK A01 T01280090  RH  077%=      5-min Rain = 0
KWT1 140235Z 17009KT 13/09 A3025 RMK A01 T01280090  RH  078%=      5-min Rain = 0
KWT1 140236Z 17009KT 13/09 A3025 RMK A01 T01280090  RH  078%=      5-min Rain = 0
KWT1 140237Z 16008KT 13/09 A3025 RMK A01 T01270090  RH  078%=      5-min Rain = 0
KWT1 140238Z 17009KT 13/09 A3025 RMK A01 T01270090  RH  078%=      5-min Rain = 0
KWT1 140239Z 17008KT 13/09 A3025 RMK A01 T01270091  RH  078%=      5-min Rain = 0
KWT1 140240Z 17008KT 13/09 A3025 RMK A01 T01270091  RH  078%=      5-min Rain = 0
KWT1 140241Z 17010KT 13/09 A3025 RMK A01 T01270091  RH  079%=      5-min Rain = 0
KWT1 140242Z 17010KT 13/09 A3025 RMK A01 T01280092  RH  079%=      5-min Rain = 0
KWT1 140243Z 17009KT 13/09 A3025 RMK A01 T01290093  RH  079%=      5-min Rain = 0
KWT1 140244Z 17008KT 13/09 A3025 RMK A01 T01290092  RH  078%=      5-min Rain = 0
KWT1 140245Z 17009KT 13/09 A3025 RMK A01 T01280092  RH  079%=      5-min Rain = 0
KWT1 140246Z 17009KT 13/09 A3025 RMK A01 T01270093  RH  079%=      5-min Rain = 0
KWT1 140247Z 17009KT 13/09 A3025 RMK A01 T01280093  RH  079%=      5-min Rain = 0
KWT1 140248Z 17009KT 13/09 A3025 RMK A01 T01280094  RH  080%=      5-min Rain = 0
KWT1 140249Z 17009KT 13/09 A3025 RMK A01 T01280094  RH  080%=      5-min Rain = 0
KWT1 140250Z 17009KT 13/09 A3025 RMK A01 T01280094  RH  080%=      5-min Rain = 0
KWT1 140251Z 18010KT 13/09 A3026 RMK A01 T01280094  RH  080%=      5-min Rain = 0
KWT1 140252Z 17009KT 13/10 A3026 RMK A01 T01280095  RH  080%=      5-min Rain = 0
KWT1 140253Z 17010KT 13/10 A3026 RMK A01 T01280095  RH  080%=      5-min Rain = 0
KWT1 140254Z 18010KT 13/10 A3026 RMK A01 T01290096  RH  080%=      5-min Rain = 0
KWT1 140255Z 17010KT 13/10 A3026 RMK A01 T01290096  RH  080%=      5-min Rain = 0
KWT1 140256Z 18009KT 13/10 A3026 RMK A01 T01290096  RH  080%=      5-min Rain = 0
KWT1 140257Z 17009KT 13/10 A3026 RMK A01 T01290096  RH  080%=      5-min Rain = 0
KWT1 140258Z 17010KT 13/10 A3026 RMK A01 T01290096  RH  081%=      5-min Rain = 0
KWT1 140259Z 17010KT 13/10 A3026 RMK A01 T01290097  RH  081%=      5-min Rain = 0
KWT1 140300Z 17009KT 13/10 A3026 RMK A01 T01290097  RH  081%=      5-min Rain = 0
KWT1 140301Z 17010KT 13/10 A3026 RMK A01 T01290097  RH  081%=      5-min Rain = 0
KWT1 140302Z 17009KT 13/10 A3026 RMK A01 T01290097  RH  081%=      5-min Rain = 0
KWT1 140303Z 17011KT 13/10 A3025 RMK A01 T01290098  RH  081%=      5-min Rain = 0
KWT1 140304Z 17008KT 13/10 A3025 RMK A01 T01300098  RH  081%=      5-min Rain = 0
KWT1 140305Z 17011KT 13/10 A3025 RMK A01 T01300098  RH  081%=      5-min Rain = 0
KWT1 140306Z 17010KT 13/10 A3025 RMK A01 T01300098  RH  081%=      5-min Rain = 0
KWT1 140307Z 17010KT 13/10 A3025 RMK A01 T01300098  RH  081%=      5-min Rain = 0
KWT1 140308Z 17009KT 13/10 A3025 RMK A01 T01300098  RH  081%=      5-min Rain = 0
KWT1 140309Z 17009KT 13/10 A3025 RMK A01 T01290098  RH  081%=      5-min Rain = 0
KWT1 140310Z 17008KT 13/10 A3025 RMK A01 T01290098  RH  081%=      5-min Rain = 0
KWT1 140311Z 17009KT 13/10 A3026 RMK A01 T01290098  RH  082%=      5-min Rain = 0
KWT1 140312Z 17008KT 13/10 A3026 RMK A01 T01280097  RH  082%=      5-min Rain = 0
KWT1 140313Z 17009KT 13/10 A3026 RMK A01 T01280097  RH  082%=      5-min Rain = 0
KWT1 140314Z 17008KT 13/10 A3026 RMK A01 T01270097  RH  082%=      5-min Rain = 0
KWT1 140315Z 17008KT 13/10 A3026 RMK A01 T01270097  RH  082%=      5-min Rain = 0
KWT1 140316Z 17008KT 13/10 A3026 RMK A01 T01270097  RH  082%=      5-min Rain = 0
KWT1 140317Z 17009KT 13/10 A3026 RMK A01 T01260097  RH  082%=      5-min Rain = 0
KWT1 140318Z 17008KT 13/10 A3026 RMK A01 T01260097  RH  082%=      5-min Rain = 0
KWT1 140319Z 17009KT 13/10 A3026 RMK A01 T01260097  RH  083%=      5-min Rain = 0
KWT1 140320Z 17009KT 13/10 A3026 RMK A01 T01260098  RH  083%=      5-min Rain = 0
KWT1 140321Z 17009KT 13/10 A3026 RMK A01 T01260097  RH  083%=      5-min Rain = 0
KWT1 140322Z 17008KT 13/10 A3026 RMK A01 T01260097  RH  083%=      5-min Rain = 0
KWT1 140323Z 18008KT 13/10 A3026 RMK A01 T01250097  RH  083%=      5-min Rain = 0
KWT1 140324Z 17008KT 13/10 A3026 RMK A01 T01250097  RH  083%=      5-min Rain = 0
KWT1 140325Z 17007KT 13/10 A3026 RMK A01 T01250097  RH  083%=      5-min Rain = 0
KWT1 140326Z 17008KT 12/10 A3026 RMK A01 T01240096  RH  083%=      5-min Rain = 0
KWT1 140327Z 17008KT 12/10 A3026 RMK A01 T01240097  RH  083%=      5-min Rain = 0
KWT1 140328Z 17009KT 12/10 A3026 RMK A01 T01240097  RH  083%=      5-min Rain = 0
KWT1 140329Z 17008KT 12/10 A3026 RMK A01 T01230096  RH  084%=      5-min Rain = 0
KWT1 140330Z 17007KT 12/10 A3026 RMK A01 T01230096  RH  083%=      5-min Rain = 0
KWT1 140331Z 17007KT 12/10 A3026 RMK A01 T01220095  RH  083%=      5-min Rain = 0
KWT1 140332Z 17008KT 12/10 A3026 RMK A01 T01210095  RH  084%=      5-min Rain = 0
KWT1 140333Z 17008KT 12/10 A3026 RMK A01 T01210095  RH  084%=      5-min Rain = 0
KWT1 140334Z 17008KT 12/10 A3026 RMK A01 T01210095  RH  084%=      5-min Rain = 0
KWT1 140335Z 17007KT 12/09 A3026 RMK A01 T01200094  RH  084%=      5-min Rain = 0
KWT1 140336Z 17008KT 12/09 A3026 RMK A01 T01200094  RH  084%=      5-min Rain = 0
KWT1 140337Z 17008KT 12/09 A3026 RMK A01 T01190094  RH  085%=      5-min Rain = 0
KWT1 140338Z 18008KT 12/09 A3026 RMK A01 T01190094  RH  085%=      5-min Rain = 0
KWT1 140339Z 18008KT 12/09 A3026 RMK A01 T01180094  RH  085%=      5-min Rain = 0
KWT1 140340Z 18007KT 12/09 A3026 RMK A01 T01180094  RH  085%=      5-min Rain = 0
KWT1 140341Z 18008KT 12/09 A3027 RMK A01 T01180094  RH  085%=      5-min Rain = 0
KWT1 140342Z 18007KT 12/09 A3027 RMK A01 T01170094  RH  085%=      5-min Rain = 0
KWT1 140343Z 18007KT 12/09 A3027 RMK A01 T01170093  RH  085%=      5-min Rain = 0
KWT1 140344Z 18007KT 12/09 A3027 RMK A01 T01160093  RH  086%=      5-min Rain = 0
KWT1 140345Z 18008KT 12/09 A3027 RMK A01 T01150092  RH  086%=      5-min Rain = 0
KWT1 140346Z 18007KT 12/09 A3027 RMK A01 T01150093  RH  086%=      5-min Rain = 0
KWT1 140347Z 18007KT 12/09 A3026 RMK A01 T01150093  RH  086%=      5-min Rain = 0
KWT1 140348Z 17007KT 12/09 A3026 RMK A01 T01150093  RH  086%=      5-min Rain = 0
KWT1 140349Z 17007KT 12/09 A3026 RMK A01 T01150093  RH  086%=      5-min Rain = 0
KWT1 140350Z 18007KT 12/09 A3026 RMK A01 T01150093  RH  086%=      5-min Rain = 0
KWT1 140351Z 18007KT 12/09 A3026 RMK A01 T01150093  RH  086%=      5-min Rain = 0
KWT1 140352Z 18006KT 12/09 A3026 RMK A01 T01150093  RH  087%=      5-min Rain = 0
KWT1 140353Z 18007KT 12/09 A3026 RMK A01 T01150093  RH  086%=      5-min Rain = 0
KWT1 140354Z 18007KT 11/09 A3026 RMK A01 T01140093  RH  086%=      5-min Rain = 0
KWT1 140355Z 18007KT 11/09 A3026 RMK A01 T01140093  RH  087%=      5-min Rain = 0
KWT1 140356Z 17007KT 11/09 A3026 RMK A01 T01140093  RH  087%=      5-min Rain = 0
KWT1 140357Z 17007KT 11/09 A3026 RMK A01 T01130092  RH  087%=      5-min Rain = 0
KWT1 140358Z 17007KT 11/09 A3026 RMK A01 T01130092  RH  087%=      5-min Rain = 0
KWT1 140359Z 18007KT 11/09 A3027 RMK A01 T01120092  RH  087%=      5-min Rain = 0
KWT1 140400Z 18007KT 11/09 A3027 RMK A01 T01120091  RH  087%=      5-min Rain = 0
KWT1 140401Z 18007KT 11/09 A3027 RMK A01 T01120092  RH  088%=      5-min Rain = 0
KWT1 140402Z 18007KT 11/09 A3026 RMK A01 T01110091  RH  088%=      5-min Rain = 0
KWT1 140403Z 18007KT 11/09 A3026 RMK A01 T01120092  RH  088%=      5-min Rain = 0
KWT1 140404Z 17008KT 11/09 A3026 RMK A01 T01110092  RH  088%=      5-min Rain = 0
KWT1 140405Z 18008KT 11/09 A3026 RMK A01 T01110092  RH  088%=      5-min Rain = 0
KWT1 140406Z 17008KT 11/09 A3026 RMK A01 T01110092  RH  088%=      5-min Rain = 0
KWT1 140407Z 17008KT 11/09 A3026 RMK A01 T01110092  RH  088%=      5-min Rain = 0
KWT1 140408Z 17008KT 11/09 A3025 RMK A01 T01110092  RH  088%=      5-min Rain = 0
KWT1 140409Z 17009KT 11/09 A3025 RMK A01 T01120093  RH  088%=      5-min Rain = 0
KWT1 140410Z 17008KT 11/09 A3026 RMK A01 T01120093  RH  088%=      5-min Rain = 0
KWT1 140411Z 17008KT 11/09 A3026 RMK A01 T01120093  RH  088%=      5-min Rain = 0
KWT1 140412Z 17008KT 11/09 A3026 RMK A01 T01120093  RH  088%=      5-min Rain = 0
KWT1 140413Z 17007KT 11/09 A3026 RMK A01 T01120093  RH  088%=      5-min Rain = 0
KWT1 140414Z 17008KT 11/09 A3026 RMK A01 T01120093  RH  088%=      5-min Rain = 0
KWT1 140415Z 17008KT 11/09 A3026 RMK A01 T01120092  RH  088%=      5-min Rain = 0
KWT1 140416Z 17007KT 11/09 A3026 RMK A01 T01120092  RH  088%=      5-min Rain = 0
KWT1 140417Z 17007KT 11/09 A3026 RMK A01 T01110092  RH  088%=      5-min Rain = 0
KWT1 140418Z 17007KT 11/09 A3026 RMK A01 T01100091  RH  088%=      5-min Rain = 0
KWT1 140419Z 17007KT 11/09 A3026 RMK A01 T01100091  RH  088%=      5-min Rain = 0
KWT1 140420Z 17007KT 11/09 A3026 RMK A01 T01100091  RH  088%=      5-min Rain = 0
KWT1 140421Z 17007KT 11/09 A3026 RMK A01 T01100091  RH  089%=      5-min Rain = 0
KWT1 140422Z 17007KT 11/09 A3026 RMK A01 T01090091  RH  089%=      5-min Rain = 0
KWT1 140423Z 17007KT 11/09 A3026 RMK A01 T01090091  RH  089%=      5-min Rain = 0
KWT1 140424Z 17006KT 11/09 A3026 RMK A01 T01090091  RH  089%=      5-min Rain = 0
KWT1 140425Z 17006KT 11/09 A3026 RMK A01 T01080091  RH  089%=      5-min Rain = 0
KWT1 140426Z 18006KT 11/09 A3026 RMK A01 T01080091  RH  089%=      5-min Rain = 0
KWT1 140427Z 18006KT 11/09 A3027 RMK A01 T01070090  RH  089%=      5-min Rain = 0
KWT1 140428Z 18006KT 11/09 A3027 RMK A01 T01070091  RH  089%=      5-min Rain = 0
KWT1 140429Z 18006KT 11/09 A3027 RMK A01 T01070090  RH  089%=      5-min Rain = 0
KWT1 140430Z 18006KT 11/09 A3027 RMK A01 T01070090  RH  089%=      5-min Rain = 0
KWT1 140431Z 18006KT 11/09 A3027 RMK A01 T01060090  RH  090%=      5-min Rain = 0
KWT1 140432Z 18006KT 11/09 A3026 RMK A01 T01050089  RH  090%=      5-min Rain = 0
KWT1 140433Z 18006KT 11/09 A3026 RMK A01 T01050089  RH  090%=      5-min Rain = 0
KWT1 140434Z 18006KT 11/09 A3026 RMK A01 T01050089  RH  090%=      5-min Rain = 0
KWT1 140435Z 18006KT 10/09 A3026 RMK A01 T01040088  RH  090%=      5-min Rain = 0
KWT1 140436Z 18006KT 10/09 A3026 RMK A01 T01040089  RH  090%=      5-min Rain = 0
KWT1 140437Z 18006KT 10/09 A3026 RMK A01 T01040089  RH  090%=      5-min Rain = 0
KWT1 140438Z 18006KT 10/09 A3026 RMK A01 T01040089  RH  090%=      5-min Rain = 0
KWT1 140439Z 18006KT 10/09 A3026 RMK A01 T01030089  RH  091%=      5-min Rain = 0
KWT1 140440Z 18006KT 10/09 A3026 RMK A01 T01030089  RH  091%=      5-min Rain = 0
KWT1 140441Z 18006KT 10/09 A3026 RMK A01 T01030089  RH  091%=      5-min Rain = 0
KWT1 140442Z 18006KT 10/09 A3026 RMK A01 T01030089  RH  091%=      5-min Rain = 0
KWT1 140443Z 18006KT 10/09 A3026 RMK A01 T01030089  RH  091%=      5-min Rain = 0
KWT1 140444Z 18005KT 10/09 A3026 RMK A01 T01030089  RH  091%=      5-min Rain = 0
KWT1 140445Z 18005KT 10/09 A3026 RMK A01 T01030089  RH  091%=      5-min Rain = 0
KWT1 140446Z 18005KT 10/09 A3026 RMK A01 T01030088  RH  091%=      5-min Rain = 0
KWT1 140447Z 18005KT 10/09 A3026 RMK A01 T01020088  RH  091%=      5-min Rain = 0
KWT1 140448Z 18005KT 10/09 A3026 RMK A01 T01020088  RH  091%=      5-min Rain = 0
KWT1 140449Z 18005KT 10/09 A3026 RMK A01 T01020089  RH  091%=      5-min Rain = 0
KWT1 140450Z 18005KT 10/09 A3026 RMK A01 T01030089  RH  091%=      5-min Rain = 0
KWT1 140451Z 18005KT 10/09 A3026 RMK A01 T01020088  RH  091%=      5-min Rain = 0
KWT1 140452Z 18005KT 10/09 A3026 RMK A01 T01010087  RH  091%=      5-min Rain = 0
KWT1 140453Z 18005KT 10/09 A3026 RMK A01 T01010087  RH  091%=      5-min Rain = 0
KWT1 140454Z 19005KT 10/09 A3026 RMK A01 T01000087  RH  091%=      5-min Rain = 0
KWT1 140455Z 19006KT 10/09 A3026 RMK A01 T01000087  RH  092%=      5-min Rain = 0
KWT1 140456Z 19006KT 10/09 A3027 RMK A01 T01000087  RH  092%=      5-min Rain = 0
KWT1 140457Z 19006KT 10/09 A3027 RMK A01 T01000086  RH  092%=      5-min Rain = 0
KWT1 140458Z 19006KT 10/09 A3027 RMK A01 T00990086  RH  092%=      5-min Rain = 0
KWT1 140459Z 19006KT 10/09 A3027 RMK A01 T00980085  RH  092%=      5-min Rain = 0
KWT1 140500Z 19006KT 10/08 A3027 RMK A01 T00970084  RH  092%=      5-min Rain = 0
KWT1 140501Z 19006KT 10/08 A3027 RMK A01 T00970084  RH  092%=      5-min Rain = 0
KWT1 140502Z 19006KT 10/08 A3027 RMK A01 T00960083  RH  092%=      5-min Rain = 0
KWT1 140503Z 18006KT 10/08 A3027 RMK A01 T00950083  RH  092%=      5-min Rain = 0
KWT1 140504Z 18006KT 10/08 A3026 RMK A01 T00950084  RH  093%=      5-min Rain = 0
KWT1 140505Z 18006KT 10/08 A3026 RMK A01 T00950084  RH  093%=      5-min Rain = 0
KWT1 140506Z 18007KT 10/08 A3026 RMK A01 T00950084  RH  093%=      5-min Rain = 0
KWT1 140507Z 18007KT 10/08 A3026 RMK A01 T00950084  RH  093%=      5-min Rain = 0
KWT1 140508Z 17008KT 09/08 A3026 RMK A01 T00940084  RH  093%=      5-min Rain = 0
KWT1 140509Z 17007KT 09/08 A3026 RMK A01 T00940084  RH  093%=      5-min Rain = 0
KWT1 140510Z 17007KT 09/08 A3026 RMK A01 T00940084  RH  093%=      5-min Rain = 0
KWT1 140511Z 17007KT 09/08 A3026 RMK A01 T00940084  RH  093%=      5-min Rain = 0
KWT1 140512Z 18007KT 10/08 A3026 RMK A01 T00950084  RH  093%=      5-min Rain = 0
KWT1 140513Z 18007KT 10/09 A3026 RMK A01 T00950085  RH  093%=      5-min Rain = 0
KWT1 140514Z 18007KT 09/08 A3026 RMK A01 T00940084  RH  093%=      5-min Rain = 0
KWT1 140515Z 18007KT 09/08 A3026 RMK A01 T00940084  RH  093%=      5-min Rain = 0
KWT1 140516Z 18007KT 09/08 A3026 RMK A01 T00940084  RH  094%=      5-min Rain = 0
KWT1 140517Z 18007KT 09/08 A3026 RMK A01 T00940084  RH  094%=      5-min Rain = 0
KWT1 140518Z 19007KT 09/09 A3026 RMK A01 T00940085  RH  094%=      5-min Rain = 0
KWT1 140519Z 18007KT 09/09 A3026 RMK A01 T00940085  RH  094%=      5-min Rain = 0
KWT1 140520Z 18007KT 09/09 A3026 RMK A01 T00940085  RH  094%=      5-min Rain = 0
KWT1 140521Z 18008KT 09/09 A3026 RMK A01 T00940085  RH  094%=      5-min Rain = 0
KWT1 140522Z 18008KT 10/09 A3026 RMK A01 T00950086  RH  094%=      5-min Rain = 0
KWT1 140523Z 18008KT 10/09 A3026 RMK A01 T00960087  RH  094%=      5-min Rain = 0
KWT1 140524Z 18008KT 10/09 A3026 RMK A01 T00960087  RH  094%=      5-min Rain = 0
KWT1 140525Z 18008KT 10/09 A3026 RMK A01 T00970088  RH  094%=      5-min Rain = 0
KWT1 140526Z 18007KT 10/09 A3026 RMK A01 T00970088  RH  094%=      5-min Rain = 0
KWT1 140527Z 18007KT 10/09 A3026 RMK A01 T00970087  RH  094%=      5-min Rain = 0
KWT1 140528Z 18008KT 10/09 A3026 RMK A01 T00960087  RH  094%=      5-min Rain = 0
KWT1 140529Z 18007KT 10/09 A3026 RMK A01 T00960087  RH  094%=      5-min Rain = 0
KWT1 140530Z 18008KT 10/09 A3026 RMK A01 T00960087  RH  094%=      5-min Rain = 0
KWT1 140531Z 18008KT 10/09 A3026 RMK A01 T00960087  RH  094%=      5-min Rain = 0
KWT1 140532Z 18007KT 10/09 A3026 RMK A01 T00960087  RH  094%=      5-min Rain = 0
KWT1 140533Z 18008KT 10/09 A3026 RMK A01 T00960086  RH  094%=      5-min Rain = 0
KWT1 140534Z 18007KT 10/09 A3026 RMK A01 T00960087  RH  094%=      5-min Rain = 0
KWT1 140535Z 18008KT 10/09 A3026 RMK A01 T00960087  RH  094%=      5-min Rain = 0
KWT1 140536Z 18007KT 10/09 A3026 RMK A01 T00960087  RH  094%=      5-min Rain = 0
KWT1 140537Z 18008KT 10/09 A3026 RMK A01 T00960087  RH  094%=      5-min Rain = 0
KWT1 140538Z 18008KT 10/09 A3026 RMK A01 T00960087  RH  094%=      5-min Rain = 0
KWT1 140539Z 18008KT 10/09 A3026 RMK A01 T00950086  RH  094%=      5-min Rain = 0
KWT1 140540Z 18008KT 10/09 A3026 RMK A01 T00950086  RH  094%=      5-min Rain = 0
KWT1 140541Z 18009KT 10/09 A3026 RMK A01 T00960087  RH  094%=      5-min Rain = 0
KWT1 140542Z 18008KT 10/09 A3026 RMK A01 T00950086  RH  094%=      5-min Rain = 0
KWT1 140543Z 18008KT 09/09 A3026 RMK A01 T00940085  RH  094%=      5-min Rain = 0
KWT1 140544Z 19008KT 09/09 A3026 RMK A01 T00940085  RH  094%=      5-min Rain = 0
KWT1 140545Z 19008KT 09/08 A3026 RMK A01 T00930084  RH  094%=      5-min Rain = 0
KWT1 140546Z 19008KT 09/08 A3026 RMK A01 T00930084  RH  094%=      5-min Rain = 0
KWT1 140547Z 19007KT 09/08 A3026 RMK A01 T00920083  RH  094%=      5-min Rain = 0
KWT1 140548Z 19007KT 09/08 A3026 RMK A01 T00910083  RH  094%=      5-min Rain = 0
KWT1 140549Z 19007KT 09/08 A3026 RMK A01 T00910083  RH  095%=      5-min Rain = 0
KWT1 140550Z 19008KT 09/08 A3026 RMK A01 T00910083  RH  095%=      5-min Rain = 0
KWT1 140551Z 19008KT 09/08 A3026 RMK A01 T00900082  RH  095%=      5-min Rain = 0
KWT1 140552Z 19007KT 09/08 A3026 RMK A01 T00900082  RH  095%=      5-min Rain = 0
KWT1 140553Z 19008KT 09/08 A3026 RMK A01 T00890081  RH  095%=      5-min Rain = 0
KWT1 140554Z 19008KT 09/08 A3026 RMK A01 T00890082  RH  095%=      5-min Rain = 0
KWT1 140555Z 19008KT 09/08 A3026 RMK A01 T00880081  RH  095%=      5-min Rain = 0
KWT1 140556Z 19008KT 09/08 A3026 RMK A01 T00890082  RH  095%=      5-min Rain = 0
KWT1 140557Z 19009KT 09/08 A3026 RMK A01 T00890082  RH  096%=      5-min Rain = 0
KWT1 140558Z 19009KT 09/08 A3026 RMK A01 T00890083  RH  096%=      5-min Rain = 0
KWT1 140559Z 19009KT 09/08 A3026 RMK A01 T00890083  RH  096%=      5-min Rain = 0

Page generated in 0.0322 seconds.